<?xml version="1.0" encoding="UTF-8"?>
<gpx version="1.1" creator="https://www.youtrack.es" xsi:schemaLocation="http://www.topografix.com/GPX/1/1 http://www.topografix.com/GPX/1/1/gpx.xsd http://www.garmin.com/xmlschemas/GpxExtensions/v3 http://www.garmin.com/xmlschemas/GpxExtensionsv3.xsd http://www.garmin.com/xmlschemas/TrackPointExtension/v1 http://www.garmin.com/xmlschemas/TrackPointExtensionv1.xsd" xmlns:gpxtpx="http://www.garmin.com/xmlschemas/TrackPointExtension/v1" xmlns:gpxx="http://www.garmin.com/xmlschemas/GpxExtensions/v3" xmlns:xsi="http://www.w3.org/2001/XMLSchema-instance">
  <metadata>
    <author>
      <name>RICARDO MENENDEZ</name>
      <email id="richardmp_s3" domain="hotmail.com"/>
    </author>
    <link href="https://www.youtrack.es">
      <text>YouTrack.es</text>
    </link>
    <time>2026-05-08T13:04:07Z</time>
  </metadata>
  <trk>
    <src>https://www.youtrack.es</src>
    <link href="https://www.youtrack.es/ruta/29172-richard--2">
      <text>YouTrack.es</text>
    </link>
    <trkseg>
      <trkpt lat="42.495208" lon="-5.414178">
        <time>2022-02-02T07:17:31Z</time>
      </trkpt>
      <trkpt lat="42.495264" lon="-5.414087">
        <time>2022-02-02T07:17:31Z</time>
      </trkpt>
      <trkpt lat="42.495157" lon="-5.414023">
        <time>2022-02-02T07:17:31Z</time>
      </trkpt>
      <trkpt lat="42.495086" lon="-5.414157">
        <time>2022-02-02T07:17:31Z</time>
      </trkpt>
      <trkpt lat="42.494224" lon="-5.413642">
        <time>2022-02-02T07:17:31Z</time>
      </trkpt>
      <trkpt lat="42.491459" lon="-5.411761">
        <time>2022-02-02T07:17:31Z</time>
      </trkpt>
      <trkpt lat="42.489896" lon="-5.415353">
        <time>2022-02-02T07:17:31Z</time>
      </trkpt>
      <trkpt lat="42.480342" lon="-5.408723">
        <time>2022-02-02T07:17:31Z</time>
      </trkpt>
      <trkpt lat="42.477486" lon="-5.414608">
        <time>2022-02-02T07:17:31Z</time>
      </trkpt>
      <trkpt lat="42.476271" lon="-5.413792">
        <time>2022-02-02T07:17:31Z</time>
      </trkpt>
      <trkpt lat="42.469295" lon="-5.411185">
        <time>2022-02-02T07:17:31Z</time>
      </trkpt>
      <trkpt lat="42.466268" lon="-5.413814">
        <time>2022-02-02T07:17:31Z</time>
      </trkpt>
      <trkpt lat="42.465766" lon="-5.412601">
        <time>2022-02-02T07:17:31Z</time>
      </trkpt>
      <trkpt lat="42.465077" lon="-5.409667">
        <time>2022-02-02T07:17:31Z</time>
      </trkpt>
      <trkpt lat="42.464816" lon="-5.40957">
        <time>2022-02-02T07:17:31Z</time>
      </trkpt>
      <trkpt lat="42.464689" lon="-5.409222">
        <time>2022-02-02T07:17:31Z</time>
      </trkpt>
      <trkpt lat="42.461492" lon="-5.408111">
        <time>2022-02-02T07:17:31Z</time>
      </trkpt>
      <trkpt lat="42.460977" lon="-5.407543">
        <time>2022-02-02T07:17:31Z</time>
      </trkpt>
      <trkpt lat="42.458923" lon="-5.40736">
        <time>2022-02-02T07:17:31Z</time>
      </trkpt>
      <trkpt lat="42.458603" lon="-5.405649">
        <time>2022-02-02T07:17:31Z</time>
      </trkpt>
      <trkpt lat="42.457605" lon="-5.406062">
        <time>2022-02-02T07:17:31Z</time>
      </trkpt>
      <trkpt lat="42.45757" lon="-5.406389">
        <time>2022-02-02T07:17:31Z</time>
      </trkpt>
      <trkpt lat="42.457807" lon="-5.407162">
        <time>2022-02-02T07:17:31Z</time>
      </trkpt>
      <trkpt lat="42.448181" lon="-5.407923">
        <time>2022-02-02T07:17:31Z</time>
      </trkpt>
      <trkpt lat="42.438627" lon="-5.405638">
        <time>2022-02-02T07:17:31Z</time>
      </trkpt>
      <trkpt lat="42.435373" lon="-5.404096">
        <time>2022-02-02T07:17:31Z</time>
      </trkpt>
      <trkpt lat="42.433177" lon="-5.403391">
        <time>2022-02-02T07:17:31Z</time>
      </trkpt>
      <trkpt lat="42.43062" lon="-5.402921">
        <time>2022-02-02T07:17:31Z</time>
      </trkpt>
      <trkpt lat="42.42845" lon="-5.402285">
        <time>2022-02-02T07:17:31Z</time>
      </trkpt>
      <trkpt lat="42.426228" lon="-5.401939">
        <time>2022-02-02T07:17:31Z</time>
      </trkpt>
      <trkpt lat="42.425118" lon="-5.401553">
        <time>2022-02-02T07:17:31Z</time>
      </trkpt>
      <trkpt lat="42.420166" lon="-5.40066">
        <time>2022-02-02T07:17:31Z</time>
      </trkpt>
      <trkpt lat="42.417865" lon="-5.399791">
        <time>2022-02-02T07:17:31Z</time>
      </trkpt>
      <trkpt lat="42.415699" lon="-5.397581">
        <time>2022-02-02T07:17:31Z</time>
      </trkpt>
      <trkpt lat="42.408775" lon="-5.393171">
        <time>2022-02-02T07:17:31Z</time>
      </trkpt>
      <trkpt lat="42.406835" lon="-5.392554">
        <time>2022-02-02T07:17:31Z</time>
      </trkpt>
      <trkpt lat="42.400948" lon="-5.389609">
        <time>2022-02-02T07:17:31Z</time>
      </trkpt>
      <trkpt lat="42.400976" lon="-5.391251">
        <time>2022-02-02T07:17:31Z</time>
      </trkpt>
      <trkpt lat="42.397181" lon="-5.39198">
        <time>2022-02-02T07:17:31Z</time>
      </trkpt>
      <trkpt lat="42.396313" lon="-5.391541">
        <time>2022-02-02T07:17:31Z</time>
      </trkpt>
      <trkpt lat="42.39602" lon="-5.390237">
        <time>2022-02-02T07:17:31Z</time>
      </trkpt>
      <trkpt lat="42.395454" lon="-5.388971">
        <time>2022-02-02T07:17:31Z</time>
      </trkpt>
      <trkpt lat="42.394507" lon="-5.388359">
        <time>2022-02-02T07:17:31Z</time>
      </trkpt>
      <trkpt lat="42.393116" lon="-5.38822">
        <time>2022-02-02T07:17:31Z</time>
      </trkpt>
      <trkpt lat="42.392986" lon="-5.383231">
        <time>2022-02-02T07:17:31Z</time>
      </trkpt>
      <trkpt lat="42.388726" lon="-5.383317">
        <time>2022-02-02T07:17:31Z</time>
      </trkpt>
      <trkpt lat="42.387348" lon="-5.379691">
        <time>2022-02-02T07:17:31Z</time>
      </trkpt>
      <trkpt lat="42.387221" lon="-5.379031">
        <time>2022-02-02T07:17:31Z</time>
      </trkpt>
      <trkpt lat="42.38684" lon="-5.378907">
        <time>2022-02-02T07:17:31Z</time>
      </trkpt>
      <trkpt lat="42.385886" lon="-5.377223">
        <time>2022-02-02T07:17:31Z</time>
      </trkpt>
      <trkpt lat="42.384836" lon="-5.373462">
        <time>2022-02-02T07:17:31Z</time>
      </trkpt>
      <trkpt lat="42.384622" lon="-5.373318">
        <time>2022-02-02T07:17:31Z</time>
      </trkpt>
      <trkpt lat="42.383936" lon="-5.373666">
        <time>2022-02-02T07:17:31Z</time>
      </trkpt>
      <trkpt lat="42.383544" lon="-5.373446">
        <time>2022-02-02T07:17:31Z</time>
      </trkpt>
      <trkpt lat="42.382743" lon="-5.371955">
        <time>2022-02-02T07:17:31Z</time>
      </trkpt>
      <trkpt lat="42.381" lon="-5.369412">
        <time>2022-02-02T07:17:31Z</time>
      </trkpt>
      <trkpt lat="42.379447" lon="-5.366784">
        <time>2022-02-02T07:17:31Z</time>
      </trkpt>
      <trkpt lat="42.373054" lon="-5.357621">
        <time>2022-02-02T07:17:31Z</time>
      </trkpt>
      <trkpt lat="42.362551" lon="-5.334013">
        <time>2022-02-02T07:17:31Z</time>
      </trkpt>
      <trkpt lat="42.362171" lon="-5.332822">
        <time>2022-02-02T07:17:31Z</time>
      </trkpt>
      <trkpt lat="42.36185" lon="-5.332382">
        <time>2022-02-02T07:17:31Z</time>
      </trkpt>
      <trkpt lat="42.361132" lon="-5.332135">
        <time>2022-02-02T07:17:31Z</time>
      </trkpt>
      <trkpt lat="42.361283" lon="-5.330424">
        <time>2022-02-02T07:17:31Z</time>
      </trkpt>
      <trkpt lat="42.3603" lon="-5.329823">
        <time>2022-02-02T07:17:31Z</time>
      </trkpt>
      <trkpt lat="42.360328" lon="-5.329458">
        <time>2022-02-02T07:17:31Z</time>
      </trkpt>
      <trkpt lat="42.359757" lon="-5.328476">
        <time>2022-02-02T07:17:31Z</time>
      </trkpt>
      <trkpt lat="42.358623" lon="-5.324791">
        <time>2022-02-02T07:17:31Z</time>
      </trkpt>
      <trkpt lat="42.35726" lon="-5.321438">
        <time>2022-02-02T07:17:31Z</time>
      </trkpt>
      <trkpt lat="42.355733" lon="-5.315843">
        <time>2022-02-02T07:17:31Z</time>
      </trkpt>
      <trkpt lat="42.355345" lon="-5.314894">
        <time>2022-02-02T07:17:31Z</time>
      </trkpt>
      <trkpt lat="42.35473" lon="-5.314452">
        <time>2022-02-02T07:17:31Z</time>
      </trkpt>
      <trkpt lat="42.354604" lon="-5.314205">
        <time>2022-02-02T07:17:31Z</time>
      </trkpt>
      <trkpt lat="42.354695" lon="-5.312682">
        <time>2022-02-02T07:17:31Z</time>
      </trkpt>
      <trkpt lat="42.35291" lon="-5.3105">
        <time>2022-02-02T07:17:31Z</time>
      </trkpt>
      <trkpt lat="42.352798" lon="-5.309964">
        <time>2022-02-02T07:17:31Z</time>
      </trkpt>
      <trkpt lat="42.352973" lon="-5.308886">
        <time>2022-02-02T07:17:31Z</time>
      </trkpt>
      <trkpt lat="42.352891" lon="-5.307292">
        <time>2022-02-02T07:17:31Z</time>
      </trkpt>
      <trkpt lat="42.352649" lon="-5.306155">
        <time>2022-02-02T07:17:31Z</time>
      </trkpt>
      <trkpt lat="42.352875" lon="-5.304658">
        <time>2022-02-02T07:17:31Z</time>
      </trkpt>
      <trkpt lat="42.352776" lon="-5.304261">
        <time>2022-02-02T07:17:31Z</time>
      </trkpt>
      <trkpt lat="42.352027" lon="-5.303239">
        <time>2022-02-02T07:17:31Z</time>
      </trkpt>
      <trkpt lat="42.351131" lon="-5.297406">
        <time>2022-02-02T07:17:31Z</time>
      </trkpt>
      <trkpt lat="42.351932" lon="-5.294343">
        <time>2022-02-02T07:17:31Z</time>
      </trkpt>
      <trkpt lat="42.352296" lon="-5.291939">
        <time>2022-02-02T07:17:31Z</time>
      </trkpt>
      <trkpt lat="42.352173" lon="-5.286076">
        <time>2022-02-02T07:17:31Z</time>
      </trkpt>
      <trkpt lat="42.349097" lon="-5.273142">
        <time>2022-02-02T07:17:31Z</time>
      </trkpt>
      <trkpt lat="42.351821" lon="-5.268754">
        <time>2022-02-02T07:17:31Z</time>
      </trkpt>
      <trkpt lat="42.352154" lon="-5.266458">
        <time>2022-02-02T07:17:31Z</time>
      </trkpt>
      <trkpt lat="42.351174" lon="-5.266035">
        <time>2022-02-02T07:17:31Z</time>
      </trkpt>
      <trkpt lat="42.351063" lon="-5.265831">
        <time>2022-02-02T07:17:31Z</time>
      </trkpt>
      <trkpt lat="42.35125" lon="-5.264726">
        <time>2022-02-02T07:17:31Z</time>
      </trkpt>
      <trkpt lat="42.351955" lon="-5.263867">
        <time>2022-02-02T07:17:31Z</time>
      </trkpt>
      <trkpt lat="42.351706" lon="-5.260139">
        <time>2022-02-02T07:17:31Z</time>
      </trkpt>
      <trkpt lat="42.351365" lon="-5.258535">
        <time>2022-02-02T07:17:31Z</time>
      </trkpt>
      <trkpt lat="42.350794" lon="-5.257167">
        <time>2022-02-02T07:17:31Z</time>
      </trkpt>
      <trkpt lat="42.35052" lon="-5.255746">
        <time>2022-02-02T07:17:31Z</time>
      </trkpt>
      <trkpt lat="42.34964" lon="-5.253857">
        <time>2022-02-02T07:17:31Z</time>
      </trkpt>
      <trkpt lat="42.349624" lon="-5.252591">
        <time>2022-02-02T07:17:31Z</time>
      </trkpt>
      <trkpt lat="42.349866" lon="-5.251272">
        <time>2022-02-02T07:17:31Z</time>
      </trkpt>
      <trkpt lat="42.349898" lon="-5.250086">
        <time>2022-02-02T07:17:31Z</time>
      </trkpt>
      <trkpt lat="42.349168" lon="-5.249786">
        <time>2022-02-02T07:17:31Z</time>
      </trkpt>
      <trkpt lat="42.34832" lon="-5.250151">
        <time>2022-02-02T07:17:31Z</time>
      </trkpt>
      <trkpt lat="42.347935" lon="-5.250172">
        <time>2022-02-02T07:17:31Z</time>
      </trkpt>
      <trkpt lat="42.347285" lon="-5.249442">
        <time>2022-02-02T07:17:31Z</time>
      </trkpt>
      <trkpt lat="42.346782" lon="-5.248316">
        <time>2022-02-02T07:17:31Z</time>
      </trkpt>
      <trkpt lat="42.346726" lon="-5.247855">
        <time>2022-02-02T07:17:31Z</time>
      </trkpt>
      <trkpt lat="42.346627" lon="-5.24786">
        <time>2022-02-02T07:17:31Z</time>
      </trkpt>
      <trkpt lat="42.346702" lon="-5.246948">
        <time>2022-02-02T07:17:31Z</time>
      </trkpt>
      <trkpt lat="42.346496" lon="-5.246809">
        <time>2022-02-02T07:17:31Z</time>
      </trkpt>
      <trkpt lat="42.345457" lon="-5.245103">
        <time>2022-02-02T07:17:31Z</time>
      </trkpt>
      <trkpt lat="42.346207" lon="-5.24308">
        <time>2022-02-02T07:17:31Z</time>
      </trkpt>
      <trkpt lat="42.337515" lon="-5.236772">
        <time>2022-02-02T07:17:31Z</time>
      </trkpt>
      <trkpt lat="42.337166" lon="-5.236203">
        <time>2022-02-02T07:17:31Z</time>
      </trkpt>
      <trkpt lat="42.336492" lon="-5.23586">
        <time>2022-02-02T07:17:31Z</time>
      </trkpt>
      <trkpt lat="42.334613" lon="-5.235361">
        <time>2022-02-02T07:17:31Z</time>
      </trkpt>
      <trkpt lat="42.330243" lon="-5.234889">
        <time>2022-02-02T07:17:31Z</time>
      </trkpt>
      <trkpt lat="42.326237" lon="-5.234846">
        <time>2022-02-02T07:17:31Z</time>
      </trkpt>
      <trkpt lat="42.324809" lon="-5.233955">
        <time>2022-02-02T07:17:31Z</time>
      </trkpt>
      <trkpt lat="42.323473" lon="-5.233569">
        <time>2022-02-02T07:17:31Z</time>
      </trkpt>
      <trkpt lat="42.322124" lon="-5.232807">
        <time>2022-02-02T07:17:31Z</time>
      </trkpt>
      <trkpt lat="42.320728" lon="-5.232652">
        <time>2022-02-02T07:17:31Z</time>
      </trkpt>
      <trkpt lat="42.316999" lon="-5.231069">
        <time>2022-02-02T07:17:31Z</time>
      </trkpt>
      <trkpt lat="42.316563" lon="-5.2302">
        <time>2022-02-02T07:17:31Z</time>
      </trkpt>
      <trkpt lat="42.316016" lon="-5.230356">
        <time>2022-02-02T07:17:31Z</time>
      </trkpt>
      <trkpt lat="42.315159" lon="-5.230989">
        <time>2022-02-02T07:17:31Z</time>
      </trkpt>
      <trkpt lat="42.311704" lon="-5.232748">
        <time>2022-02-02T07:17:31Z</time>
      </trkpt>
      <trkpt lat="42.309415" lon="-5.232952">
        <time>2022-02-02T07:17:31Z</time>
      </trkpt>
      <trkpt lat="42.308363" lon="-5.225388">
        <time>2022-02-02T07:17:31Z</time>
      </trkpt>
      <trkpt lat="42.307368" lon="-5.221542">
        <time>2022-02-02T07:17:31Z</time>
      </trkpt>
      <trkpt lat="42.303559" lon="-5.210518">
        <time>2022-02-02T07:17:31Z</time>
      </trkpt>
      <trkpt lat="42.304991" lon="-5.202182">
        <time>2022-02-02T07:17:31Z</time>
      </trkpt>
      <trkpt lat="42.301562" lon="-5.195814">
        <time>2022-02-02T07:17:31Z</time>
      </trkpt>
      <trkpt lat="42.301308" lon="-5.194473">
        <time>2022-02-02T07:17:31Z</time>
      </trkpt>
      <trkpt lat="42.300421" lon="-5.194398">
        <time>2022-02-02T07:17:31Z</time>
      </trkpt>
      <trkpt lat="42.299722" lon="-5.194033">
        <time>2022-02-02T07:17:31Z</time>
      </trkpt>
      <trkpt lat="42.295695" lon="-5.19148">
        <time>2022-02-02T07:17:31Z</time>
      </trkpt>
      <trkpt lat="42.293882" lon="-5.189549">
        <time>2022-02-02T07:17:31Z</time>
      </trkpt>
      <trkpt lat="42.289351" lon="-5.185983">
        <time>2022-02-02T07:17:31Z</time>
      </trkpt>
      <trkpt lat="42.289177" lon="-5.187201">
        <time>2022-02-02T07:17:31Z</time>
      </trkpt>
      <trkpt lat="42.288946" lon="-5.187426">
        <time>2022-02-02T07:17:31Z</time>
      </trkpt>
      <trkpt lat="42.286318" lon="-5.187424">
        <time>2022-02-02T07:17:31Z</time>
      </trkpt>
      <trkpt lat="42.283298" lon="-5.186952">
        <time>2022-02-02T07:17:31Z</time>
      </trkpt>
      <trkpt lat="42.282909" lon="-5.181341">
        <time>2022-02-02T07:17:31Z</time>
      </trkpt>
      <trkpt lat="42.278825" lon="-5.181218">
        <time>2022-02-02T07:17:31Z</time>
      </trkpt>
      <trkpt lat="42.277408" lon="-5.181711">
        <time>2022-02-02T07:17:31Z</time>
      </trkpt>
      <trkpt lat="42.274725" lon="-5.183079">
        <time>2022-02-02T07:17:31Z</time>
      </trkpt>
      <trkpt lat="42.272053" lon="-5.183573">
        <time>2022-02-02T07:17:31Z</time>
      </trkpt>
      <trkpt lat="42.269394" lon="-5.183691">
        <time>2022-02-02T07:17:31Z</time>
      </trkpt>
      <trkpt lat="42.266964" lon="-5.183465">
        <time>2022-02-02T07:17:31Z</time>
      </trkpt>
      <trkpt lat="42.265678" lon="-5.183122">
        <time>2022-02-02T07:17:31Z</time>
      </trkpt>
      <trkpt lat="42.264511" lon="-5.183326">
        <time>2022-02-02T07:17:31Z</time>
      </trkpt>
      <trkpt lat="42.263129" lon="-5.182918">
        <time>2022-02-02T07:17:31Z</time>
      </trkpt>
      <trkpt lat="42.262375" lon="-5.182886">
        <time>2022-02-02T07:17:31Z</time>
      </trkpt>
      <trkpt lat="42.257476" lon="-5.185407">
        <time>2022-02-02T07:17:31Z</time>
      </trkpt>
      <trkpt lat="42.256372" lon="-5.186352">
        <time>2022-02-02T07:17:31Z</time>
      </trkpt>
      <trkpt lat="42.254609" lon="-5.186223">
        <time>2022-02-02T07:17:31Z</time>
      </trkpt>
      <trkpt lat="42.254101" lon="-5.186298">
        <time>2022-02-02T07:17:31Z</time>
      </trkpt>
      <trkpt lat="42.253656" lon="-5.186545">
        <time>2022-02-02T07:17:31Z</time>
      </trkpt>
      <trkpt lat="42.252489" lon="-5.186727">
        <time>2022-02-02T07:17:31Z</time>
      </trkpt>
      <trkpt lat="42.249725" lon="-5.186523">
        <time>2022-02-02T07:17:31Z</time>
      </trkpt>
      <trkpt lat="42.248097" lon="-5.185772">
        <time>2022-02-02T07:17:31Z</time>
      </trkpt>
      <trkpt lat="42.245691" lon="-5.184259">
        <time>2022-02-02T07:17:31Z</time>
      </trkpt>
      <trkpt lat="42.244865" lon="-5.184023">
        <time>2022-02-02T07:17:31Z</time>
      </trkpt>
      <trkpt lat="42.244682" lon="-5.184013">
        <time>2022-02-02T07:17:31Z</time>
      </trkpt>
      <trkpt lat="42.243117" lon="-5.185128">
        <time>2022-02-02T07:17:31Z</time>
      </trkpt>
      <trkpt lat="42.242784" lon="-5.185204">
        <time>2022-02-02T07:17:31Z</time>
      </trkpt>
      <trkpt lat="42.240921" lon="-5.18442">
        <time>2022-02-02T07:17:31Z</time>
      </trkpt>
      <trkpt lat="42.233983" lon="-5.184361">
        <time>2022-02-02T07:17:31Z</time>
      </trkpt>
      <trkpt lat="42.233435" lon="-5.18419">
        <time>2022-02-02T07:17:31Z</time>
      </trkpt>
      <trkpt lat="42.230248" lon="-5.182162">
        <time>2022-02-02T07:17:31Z</time>
      </trkpt>
      <trkpt lat="42.229851" lon="-5.181684">
        <time>2022-02-02T07:17:31Z</time>
      </trkpt>
      <trkpt lat="42.229604" lon="-5.180724">
        <time>2022-02-02T07:17:31Z</time>
      </trkpt>
      <trkpt lat="42.229569" lon="-5.179866">
        <time>2022-02-02T07:17:31Z</time>
      </trkpt>
      <trkpt lat="42.229306" lon="-5.179464">
        <time>2022-02-02T07:17:31Z</time>
      </trkpt>
      <trkpt lat="42.229183" lon="-5.179424">
        <time>2022-02-02T07:17:31Z</time>
      </trkpt>
      <trkpt lat="42.22881" lon="-5.180508">
        <time>2022-02-02T07:17:31Z</time>
      </trkpt>
      <trkpt lat="42.224922" lon="-5.179474">
        <time>2022-02-02T07:17:31Z</time>
      </trkpt>
      <trkpt lat="42.222813" lon="-5.178267">
        <time>2022-02-02T07:17:31Z</time>
      </trkpt>
      <trkpt lat="42.218229" lon="-5.174287">
        <time>2022-02-02T07:17:31Z</time>
      </trkpt>
      <trkpt lat="42.217637" lon="-5.173922">
        <time>2022-02-02T07:17:31Z</time>
      </trkpt>
      <trkpt lat="42.216759" lon="-5.172613">
        <time>2022-02-02T07:17:31Z</time>
      </trkpt>
      <trkpt lat="42.214772" lon="-5.171369">
        <time>2022-02-02T07:17:31Z</time>
      </trkpt>
      <trkpt lat="42.210632" lon="-5.170194">
        <time>2022-02-02T07:17:31Z</time>
      </trkpt>
      <trkpt lat="42.209742" lon="-5.17014">
        <time>2022-02-02T07:17:31Z</time>
      </trkpt>
      <trkpt lat="42.205474" lon="-5.168397">
        <time>2022-02-02T07:17:31Z</time>
      </trkpt>
      <trkpt lat="42.201687" lon="-5.164894">
        <time>2022-02-02T07:17:31Z</time>
      </trkpt>
      <trkpt lat="42.200191" lon="-5.162746">
        <time>2022-02-02T07:17:31Z</time>
      </trkpt>
      <trkpt lat="42.198405" lon="-5.160801">
        <time>2022-02-02T07:17:31Z</time>
      </trkpt>
      <trkpt lat="42.196561" lon="-5.157988">
        <time>2022-02-02T07:17:31Z</time>
      </trkpt>
      <trkpt lat="42.193135" lon="-5.154369">
        <time>2022-02-02T07:17:31Z</time>
      </trkpt>
      <trkpt lat="42.192499" lon="-5.153376">
        <time>2022-02-02T07:17:31Z</time>
      </trkpt>
      <trkpt lat="42.191259" lon="-5.151928">
        <time>2022-02-02T07:17:31Z</time>
      </trkpt>
      <trkpt lat="42.190071" lon="-5.149825">
        <time>2022-02-02T07:17:31Z</time>
      </trkpt>
      <trkpt lat="42.18825" lon="-5.124124">
        <time>2022-02-02T07:17:31Z</time>
      </trkpt>
      <trkpt lat="42.189145" lon="-5.123615">
        <time>2022-02-02T07:17:31Z</time>
      </trkpt>
      <trkpt lat="42.189502" lon="-5.123062">
        <time>2022-02-02T07:17:31Z</time>
      </trkpt>
      <trkpt lat="42.191144" lon="-5.121474">
        <time>2022-02-02T07:17:31Z</time>
      </trkpt>
      <trkpt lat="42.193242" lon="-5.119661">
        <time>2022-02-02T07:17:31Z</time>
      </trkpt>
      <trkpt lat="42.193302" lon="-5.119398">
        <time>2022-02-02T07:17:31Z</time>
      </trkpt>
      <trkpt lat="42.192952" lon="-5.118406">
        <time>2022-02-02T07:17:31Z</time>
      </trkpt>
      <trkpt lat="42.192289" lon="-5.117274">
        <time>2022-02-02T07:17:31Z</time>
      </trkpt>
      <trkpt lat="42.191394" lon="-5.116496">
        <time>2022-02-02T07:17:31Z</time>
      </trkpt>
      <trkpt lat="42.190723" lon="-5.1142">
        <time>2022-02-02T07:17:31Z</time>
      </trkpt>
      <trkpt lat="42.190087" lon="-5.114248">
        <time>2022-02-02T07:17:31Z</time>
      </trkpt>
      <trkpt lat="42.189582" lon="-5.113798">
        <time>2022-02-02T07:17:31Z</time>
      </trkpt>
      <trkpt lat="42.189316" lon="-5.114222">
        <time>2022-02-02T07:17:31Z</time>
      </trkpt>
      <trkpt lat="42.188854" lon="-5.114313">
        <time>2022-02-02T07:17:31Z</time>
      </trkpt>
      <trkpt lat="42.18829" lon="-5.113723">
        <time>2022-02-02T07:17:31Z</time>
      </trkpt>
      <trkpt lat="42.187475" lon="-5.113465">
        <time>2022-02-02T07:17:31Z</time>
      </trkpt>
      <trkpt lat="42.185699" lon="-5.112097">
        <time>2022-02-02T07:17:31Z</time>
      </trkpt>
      <trkpt lat="42.184283" lon="-5.111389">
        <time>2022-02-02T07:17:31Z</time>
      </trkpt>
      <trkpt lat="42.181339" lon="-5.110286">
        <time>2022-02-02T07:17:31Z</time>
      </trkpt>
      <trkpt lat="42.179996" lon="-5.109937">
        <time>2022-02-02T07:17:31Z</time>
      </trkpt>
      <trkpt lat="42.178754" lon="-5.108569">
        <time>2022-02-02T07:17:31Z</time>
      </trkpt>
      <trkpt lat="42.17739" lon="-5.107377">
        <time>2022-02-02T07:17:31Z</time>
      </trkpt>
      <trkpt lat="42.173577" lon="-5.104755">
        <time>2022-02-02T07:17:31Z</time>
      </trkpt>
      <trkpt lat="42.168083" lon="-5.101824">
        <time>2022-02-02T07:17:31Z</time>
      </trkpt>
      <trkpt lat="42.167252" lon="-5.101481">
        <time>2022-02-02T07:17:31Z</time>
      </trkpt>
      <trkpt lat="42.164684" lon="-5.100971">
        <time>2022-02-02T07:17:31Z</time>
      </trkpt>
      <trkpt lat="42.163694" lon="-5.100585">
        <time>2022-02-02T07:17:31Z</time>
      </trkpt>
      <trkpt lat="42.161466" lon="-5.099012">
        <time>2022-02-02T07:17:31Z</time>
      </trkpt>
      <trkpt lat="42.157089" lon="-5.095553">
        <time>2022-02-02T07:17:31Z</time>
      </trkpt>
      <trkpt lat="42.152857" lon="-5.093563">
        <time>2022-02-02T07:17:31Z</time>
      </trkpt>
      <trkpt lat="42.151979" lon="-5.093751">
        <time>2022-02-02T07:17:31Z</time>
      </trkpt>
      <trkpt lat="42.149771" lon="-5.093193">
        <time>2022-02-02T07:17:31Z</time>
      </trkpt>
      <trkpt lat="42.148724" lon="-5.0942">
        <time>2022-02-02T07:17:31Z</time>
      </trkpt>
      <trkpt lat="42.148171" lon="-5.095058">
        <time>2022-02-02T07:17:31Z</time>
      </trkpt>
      <trkpt lat="42.147968" lon="-5.094951">
        <time>2022-02-02T07:17:31Z</time>
      </trkpt>
      <trkpt lat="42.145555" lon="-5.092549">
        <time>2022-02-02T07:17:31Z</time>
      </trkpt>
      <trkpt lat="42.144036" lon="-5.090473">
        <time>2022-02-02T07:17:31Z</time>
      </trkpt>
      <trkpt lat="42.143002" lon="-5.089422">
        <time>2022-02-02T07:17:31Z</time>
      </trkpt>
      <trkpt lat="42.142063" lon="-5.088923">
        <time>2022-02-02T07:17:31Z</time>
      </trkpt>
      <trkpt lat="42.140126" lon="-5.084374">
        <time>2022-02-02T07:17:31Z</time>
      </trkpt>
      <trkpt lat="42.138072" lon="-5.082486">
        <time>2022-02-02T07:17:31Z</time>
      </trkpt>
      <trkpt lat="42.137031" lon="-5.080549">
        <time>2022-02-02T07:17:31Z</time>
      </trkpt>
      <trkpt lat="42.134056" lon="-5.076338">
        <time>2022-02-02T07:17:31Z</time>
      </trkpt>
      <trkpt lat="42.132596" lon="-5.074874">
        <time>2022-02-02T07:17:31Z</time>
      </trkpt>
      <trkpt lat="42.131179" lon="-5.073709">
        <time>2022-02-02T07:17:31Z</time>
      </trkpt>
      <trkpt lat="42.130165" lon="-5.072594">
        <time>2022-02-02T07:17:31Z</time>
      </trkpt>
      <trkpt lat="42.12771" lon="-5.071017">
        <time>2022-02-02T07:17:31Z</time>
      </trkpt>
      <trkpt lat="42.119832" lon="-5.063163">
        <time>2022-02-02T07:17:31Z</time>
      </trkpt>
      <trkpt lat="42.117126" lon="-5.061235">
        <time>2022-02-02T07:17:31Z</time>
      </trkpt>
      <trkpt lat="42.115642" lon="-5.058008">
        <time>2022-02-02T07:17:31Z</time>
      </trkpt>
      <trkpt lat="42.111205" lon="-5.052107">
        <time>2022-02-02T07:17:31Z</time>
      </trkpt>
      <trkpt lat="42.109398" lon="-5.04928">
        <time>2022-02-02T07:17:31Z</time>
      </trkpt>
      <trkpt lat="42.105793" lon="-5.041711">
        <time>2022-02-02T07:17:31Z</time>
      </trkpt>
      <trkpt lat="42.101314" lon="-5.041276">
        <time>2022-02-02T07:17:31Z</time>
      </trkpt>
      <trkpt lat="42.10051" lon="-5.040944">
        <time>2022-02-02T07:17:31Z</time>
      </trkpt>
      <trkpt lat="42.100077" lon="-5.040439">
        <time>2022-02-02T07:17:31Z</time>
      </trkpt>
      <trkpt lat="42.097864" lon="-5.03868">
        <time>2022-02-02T07:17:31Z</time>
      </trkpt>
      <trkpt lat="42.097116" lon="-5.037071">
        <time>2022-02-02T07:17:31Z</time>
      </trkpt>
      <trkpt lat="42.096925" lon="-5.037135">
        <time>2022-02-02T07:17:31Z</time>
      </trkpt>
      <trkpt lat="42.096774" lon="-5.035772">
        <time>2022-02-02T07:17:31Z</time>
      </trkpt>
      <trkpt lat="42.096312" lon="-5.03383">
        <time>2022-02-02T07:17:31Z</time>
      </trkpt>
      <trkpt lat="42.096304" lon="-5.033369">
        <time>2022-02-02T07:17:31Z</time>
      </trkpt>
      <trkpt lat="42.096582" lon="-5.032854">
        <time>2022-02-02T07:17:31Z</time>
      </trkpt>
      <trkpt lat="42.097291" lon="-5.032768">
        <time>2022-02-02T07:17:31Z</time>
      </trkpt>
      <trkpt lat="42.097625" lon="-5.032618">
        <time>2022-02-02T07:17:31Z</time>
      </trkpt>
      <trkpt lat="42.097737" lon="-5.032414">
        <time>2022-02-02T07:17:31Z</time>
      </trkpt>
      <trkpt lat="42.097586" lon="-5.031502">
        <time>2022-02-02T07:17:31Z</time>
      </trkpt>
      <trkpt lat="42.097434" lon="-5.031588">
        <time>2022-02-02T07:17:31Z</time>
      </trkpt>
      <trkpt lat="42.097392" lon="-5.031506">
        <time>2022-02-02T07:18:39Z</time>
      </trkpt>
      <trkpt lat="42.097559" lon="-5.031313">
        <time>2022-02-02T07:18:39Z</time>
      </trkpt>
      <trkpt lat="42.095739" lon="-5.025998">
        <time>2022-02-02T07:18:39Z</time>
      </trkpt>
      <trkpt lat="42.095157" lon="-5.026063">
        <time>2022-02-02T07:18:39Z</time>
      </trkpt>
      <trkpt lat="42.094927" lon="-5.02588">
        <time>2022-02-02T07:18:39Z</time>
      </trkpt>
      <trkpt lat="42.094186" lon="-5.024453">
        <time>2022-02-02T07:18:39Z</time>
      </trkpt>
      <trkpt lat="42.092355" lon="-5.022866">
        <time>2022-02-02T07:18:39Z</time>
      </trkpt>
      <trkpt lat="42.091376" lon="-5.021707">
        <time>2022-02-02T07:18:39Z</time>
      </trkpt>
      <trkpt lat="42.08929" lon="-5.019776">
        <time>2022-02-02T07:18:39Z</time>
      </trkpt>
      <trkpt lat="42.086599" lon="-5.017512">
        <time>2022-02-02T07:18:39Z</time>
      </trkpt>
      <trkpt lat="42.085086" lon="-5.016766">
        <time>2022-02-02T07:18:39Z</time>
      </trkpt>
      <trkpt lat="42.08546" lon="-5.015457">
        <time>2022-02-02T07:18:39Z</time>
      </trkpt>
      <trkpt lat="42.084258" lon="-5.014642">
        <time>2022-02-02T07:18:39Z</time>
      </trkpt>
      <trkpt lat="42.083426" lon="-5.013644">
        <time>2022-02-02T07:18:39Z</time>
      </trkpt>
      <trkpt lat="42.081877" lon="-5.012233">
        <time>2022-02-02T07:18:39Z</time>
      </trkpt>
      <trkpt lat="42.066032" lon="-5.001091">
        <time>2022-02-02T07:18:39Z</time>
      </trkpt>
      <trkpt lat="42.054268" lon="-4.991317">
        <time>2022-02-02T07:18:39Z</time>
      </trkpt>
      <trkpt lat="42.050723" lon="-4.98561">
        <time>2022-02-02T07:18:39Z</time>
      </trkpt>
      <trkpt lat="42.050643" lon="-4.98473">
        <time>2022-02-02T07:18:39Z</time>
      </trkpt>
      <trkpt lat="42.051165" lon="-4.981543">
        <time>2022-02-02T07:18:39Z</time>
      </trkpt>
      <trkpt lat="42.05087" lon="-4.981254">
        <time>2022-02-02T07:18:39Z</time>
      </trkpt>
      <trkpt lat="42.051025" lon="-4.980052">
        <time>2022-02-02T07:18:39Z</time>
      </trkpt>
      <trkpt lat="42.050512" lon="-4.978303">
        <time>2022-02-02T07:18:39Z</time>
      </trkpt>
      <trkpt lat="42.049525" lon="-4.978518">
        <time>2022-02-02T07:18:39Z</time>
      </trkpt>
      <trkpt lat="42.049856" lon="-4.976485">
        <time>2022-02-02T07:18:39Z</time>
      </trkpt>
      <trkpt lat="42.049516" lon="-4.974216">
        <time>2022-02-02T07:18:39Z</time>
      </trkpt>
      <trkpt lat="42.0445" lon="-4.966593">
        <time>2022-02-02T07:18:39Z</time>
      </trkpt>
      <trkpt lat="42.032082" lon="-4.946728">
        <time>2022-02-02T07:18:39Z</time>
      </trkpt>
      <trkpt lat="42.013176" lon="-4.938354">
        <time>2022-02-02T07:18:39Z</time>
      </trkpt>
      <trkpt lat="42.017553" lon="-4.934911">
        <time>2022-02-02T07:18:39Z</time>
      </trkpt>
      <trkpt lat="42.01713" lon="-4.934224">
        <time>2022-02-02T07:18:39Z</time>
      </trkpt>
      <trkpt lat="42.015829" lon="-4.932773">
        <time>2022-02-02T07:18:39Z</time>
      </trkpt>
      <trkpt lat="42.014438" lon="-4.930237">
        <time>2022-02-02T07:18:39Z</time>
      </trkpt>
      <trkpt lat="42.013266" lon="-4.928815">
        <time>2022-02-02T07:18:39Z</time>
      </trkpt>
      <trkpt lat="42.012808" lon="-4.927765">
        <time>2022-02-02T07:18:39Z</time>
      </trkpt>
      <trkpt lat="42.011036" lon="-4.92555">
        <time>2022-02-02T07:18:39Z</time>
      </trkpt>
      <trkpt lat="42.006409" lon="-4.914515">
        <time>2022-02-02T07:18:39Z</time>
      </trkpt>
      <trkpt lat="42.011646" lon="-4.908067">
        <time>2022-02-02T07:18:39Z</time>
      </trkpt>
      <trkpt lat="42.016771" lon="-4.892558">
        <time>2022-02-02T07:18:39Z</time>
      </trkpt>
      <trkpt lat="42.01595" lon="-4.892049">
        <time>2022-02-02T07:18:39Z</time>
      </trkpt>
      <trkpt lat="42.015325" lon="-4.89096">
        <time>2022-02-02T07:18:39Z</time>
      </trkpt>
      <trkpt lat="42.014528" lon="-4.890364">
        <time>2022-02-02T07:18:39Z</time>
      </trkpt>
      <trkpt lat="42.01428" lon="-4.889646">
        <time>2022-02-02T07:18:39Z</time>
      </trkpt>
      <trkpt lat="42.013898" lon="-4.889152">
        <time>2022-02-02T07:18:39Z</time>
      </trkpt>
      <trkpt lat="42.013133" lon="-4.888852">
        <time>2022-02-02T07:18:39Z</time>
      </trkpt>
      <trkpt lat="42.013356" lon="-4.888042">
        <time>2022-02-02T07:18:39Z</time>
      </trkpt>
      <trkpt lat="42.013192" lon="-4.884834">
        <time>2022-02-02T07:18:39Z</time>
      </trkpt>
      <trkpt lat="42.013786" lon="-4.882329">
        <time>2022-02-02T07:18:39Z</time>
      </trkpt>
      <trkpt lat="42.009621" lon="-4.87683">
        <time>2022-02-02T07:18:39Z</time>
      </trkpt>
      <trkpt lat="42.00811" lon="-4.871128">
        <time>2022-02-02T07:18:39Z</time>
      </trkpt>
      <trkpt lat="42.00705" lon="-4.869202">
        <time>2022-02-02T07:18:39Z</time>
      </trkpt>
      <trkpt lat="42.005232" lon="-4.864417">
        <time>2022-02-02T07:18:39Z</time>
      </trkpt>
      <trkpt lat="42.001497" lon="-4.855539">
        <time>2022-02-02T07:18:39Z</time>
      </trkpt>
      <trkpt lat="41.99883" lon="-4.860265">
        <time>2022-02-02T07:18:39Z</time>
      </trkpt>
      <trkpt lat="41.998495" lon="-4.860603">
        <time>2022-02-02T07:18:39Z</time>
      </trkpt>
      <trkpt lat="41.989349" lon="-4.876063">
        <time>2022-02-02T07:18:39Z</time>
      </trkpt>
      <trkpt lat="41.989094" lon="-4.87588">
        <time>2022-02-02T07:18:39Z</time>
      </trkpt>
      <trkpt lat="41.988825" lon="-4.874969">
        <time>2022-02-02T07:18:39Z</time>
      </trkpt>
      <trkpt lat="41.988552" lon="-4.874751">
        <time>2022-02-02T07:18:39Z</time>
      </trkpt>
      <trkpt lat="41.987354" lon="-4.875298">
        <time>2022-02-02T07:18:39Z</time>
      </trkpt>
      <trkpt lat="41.986653" lon="-4.87512">
        <time>2022-02-02T07:18:39Z</time>
      </trkpt>
      <trkpt lat="41.98628" lon="-4.874621">
        <time>2022-02-02T07:18:39Z</time>
      </trkpt>
      <trkpt lat="41.97686" lon="-4.855689">
        <time>2022-02-02T07:18:39Z</time>
      </trkpt>
      <trkpt lat="41.97237" lon="-4.847562">
        <time>2022-02-02T07:18:39Z</time>
      </trkpt>
      <trkpt lat="41.971743" lon="-4.847857">
        <time>2022-02-02T07:18:39Z</time>
      </trkpt>
      <trkpt lat="41.969909" lon="-4.848125">
        <time>2022-02-02T07:18:39Z</time>
      </trkpt>
      <trkpt lat="41.966861" lon="-4.849412">
        <time>2022-02-02T07:18:39Z</time>
      </trkpt>
      <trkpt lat="41.957815" lon="-4.844756">
        <time>2022-02-02T07:18:39Z</time>
      </trkpt>
      <trkpt lat="41.953123" lon="-4.84055">
        <time>2022-02-02T07:18:39Z</time>
      </trkpt>
      <trkpt lat="41.949038" lon="-4.847707">
        <time>2022-02-02T07:18:39Z</time>
      </trkpt>
      <trkpt lat="41.948695" lon="-4.85195">
        <time>2022-02-02T07:18:39Z</time>
      </trkpt>
      <trkpt lat="41.946153" lon="-4.852245">
        <time>2022-02-02T07:18:39Z</time>
      </trkpt>
      <trkpt lat="41.944845" lon="-4.853269">
        <time>2022-02-02T07:18:39Z</time>
      </trkpt>
      <trkpt lat="41.944011" lon="-4.852636">
        <time>2022-02-02T07:18:39Z</time>
      </trkpt>
      <trkpt lat="41.944517" lon="-4.851526">
        <time>2022-02-02T07:18:39Z</time>
      </trkpt>
      <trkpt lat="41.94486" lon="-4.848828">
        <time>2022-02-02T07:18:39Z</time>
      </trkpt>
      <trkpt lat="41.959067" lon="-4.777325">
        <time>2022-02-02T07:18:39Z</time>
      </trkpt>
      <trkpt lat="41.957886" lon="-4.776558">
        <time>2022-02-02T07:18:39Z</time>
      </trkpt>
      <trkpt lat="41.956107" lon="-4.774718">
        <time>2022-02-02T07:18:39Z</time>
      </trkpt>
      <trkpt lat="41.955042" lon="-4.773817">
        <time>2022-02-02T07:18:39Z</time>
      </trkpt>
      <trkpt lat="41.953191" lon="-4.771709">
        <time>2022-02-02T07:18:39Z</time>
      </trkpt>
      <trkpt lat="41.950127" lon="-4.767546">
        <time>2022-02-02T07:18:39Z</time>
      </trkpt>
      <trkpt lat="41.95136" lon="-4.764982">
        <time>2022-02-02T07:18:39Z</time>
      </trkpt>
      <trkpt lat="41.952764" lon="-4.762616">
        <time>2022-02-02T07:18:39Z</time>
      </trkpt>
      <trkpt lat="41.953877" lon="-4.760138">
        <time>2022-02-02T07:18:39Z</time>
      </trkpt>
      <trkpt lat="41.955166" lon="-4.758362">
        <time>2022-02-02T07:18:39Z</time>
      </trkpt>
      <trkpt lat="41.956398" lon="-4.755991">
        <time>2022-02-02T07:18:39Z</time>
      </trkpt>
      <trkpt lat="41.956905" lon="-4.753824">
        <time>2022-02-02T07:18:39Z</time>
      </trkpt>
      <trkpt lat="41.956829" lon="-4.750369">
        <time>2022-02-02T07:18:39Z</time>
      </trkpt>
      <trkpt lat="41.956335" lon="-4.747161">
        <time>2022-02-02T07:18:39Z</time>
      </trkpt>
      <trkpt lat="41.956187" lon="-4.746947">
        <time>2022-02-02T07:18:39Z</time>
      </trkpt>
      <trkpt lat="41.955964" lon="-4.746882">
        <time>2022-02-02T07:18:39Z</time>
      </trkpt>
      <trkpt lat="41.95491" lon="-4.747687">
        <time>2022-02-02T07:18:39Z</time>
      </trkpt>
      <trkpt lat="41.954045" lon="-4.747939">
        <time>2022-02-02T07:18:39Z</time>
      </trkpt>
      <trkpt lat="41.952912" lon="-4.748814">
        <time>2022-02-02T07:18:39Z</time>
      </trkpt>
      <trkpt lat="41.952238" lon="-4.748159">
        <time>2022-02-02T07:18:39Z</time>
      </trkpt>
      <trkpt lat="41.953522" lon="-4.74523">
        <time>2022-02-02T07:18:39Z</time>
      </trkpt>
      <trkpt lat="41.954859" lon="-4.744393">
        <time>2022-02-02T07:18:39Z</time>
      </trkpt>
      <trkpt lat="41.955784" lon="-4.744281">
        <time>2022-02-02T07:18:39Z</time>
      </trkpt>
      <trkpt lat="41.956478" lon="-4.743621">
        <time>2022-02-02T07:18:39Z</time>
      </trkpt>
      <trkpt lat="41.95653" lon="-4.741293">
        <time>2022-02-02T07:18:39Z</time>
      </trkpt>
      <trkpt lat="41.956235" lon="-4.73912">
        <time>2022-02-02T07:18:39Z</time>
      </trkpt>
      <trkpt lat="41.955936" lon="-4.738117">
        <time>2022-02-02T07:18:39Z</time>
      </trkpt>
      <trkpt lat="41.955621" lon="-4.737618">
        <time>2022-02-02T07:18:39Z</time>
      </trkpt>
      <trkpt lat="41.955102" lon="-4.735563">
        <time>2022-02-02T07:18:39Z</time>
      </trkpt>
      <trkpt lat="41.954587" lon="-4.731111">
        <time>2022-02-02T07:18:39Z</time>
      </trkpt>
      <trkpt lat="41.95438" lon="-4.725087">
        <time>2022-02-02T07:18:39Z</time>
      </trkpt>
      <trkpt lat="41.953893" lon="-4.723574">
        <time>2022-02-02T07:18:39Z</time>
      </trkpt>
      <trkpt lat="41.953175" lon="-4.722093">
        <time>2022-02-02T07:18:39Z</time>
      </trkpt>
      <trkpt lat="41.952844" lon="-4.721745">
        <time>2022-02-02T07:18:39Z</time>
      </trkpt>
      <trkpt lat="41.951404" lon="-4.72123">
        <time>2022-02-02T07:18:39Z</time>
      </trkpt>
      <trkpt lat="41.950378" lon="-4.720505">
        <time>2022-02-02T07:18:39Z</time>
      </trkpt>
      <trkpt lat="41.949868" lon="-4.718633">
        <time>2022-02-02T07:18:39Z</time>
      </trkpt>
      <trkpt lat="41.950071" lon="-4.717158">
        <time>2022-02-02T07:18:39Z</time>
      </trkpt>
      <trkpt lat="41.950303" lon="-4.716471">
        <time>2022-02-02T07:18:39Z</time>
      </trkpt>
      <trkpt lat="41.951491" lon="-4.715924">
        <time>2022-02-02T07:18:39Z</time>
      </trkpt>
      <trkpt lat="41.952936" lon="-4.716123">
        <time>2022-02-02T07:18:39Z</time>
      </trkpt>
      <trkpt lat="41.952469" lon="-4.715602">
        <time>2022-02-02T07:18:39Z</time>
      </trkpt>
      <trkpt lat="41.952265" lon="-4.715077">
        <time>2022-02-02T07:18:39Z</time>
      </trkpt>
      <trkpt lat="41.952315" lon="-4.711858">
        <time>2022-02-02T07:18:39Z</time>
      </trkpt>
      <trkpt lat="41.951162" lon="-4.704892">
        <time>2022-02-02T07:18:39Z</time>
      </trkpt>
      <trkpt lat="41.950965" lon="-4.699592">
        <time>2022-02-02T07:18:39Z</time>
      </trkpt>
      <trkpt lat="41.954003" lon="-4.695451">
        <time>2022-02-02T07:18:39Z</time>
      </trkpt>
      <trkpt lat="41.954994" lon="-4.69451">
        <time>2022-02-02T07:18:39Z</time>
      </trkpt>
      <trkpt lat="41.957013" lon="-4.6936">
        <time>2022-02-02T07:18:39Z</time>
      </trkpt>
      <trkpt lat="41.960192" lon="-4.689333">
        <time>2022-02-02T07:18:39Z</time>
      </trkpt>
      <trkpt lat="41.963158" lon="-4.688633">
        <time>2022-02-02T07:18:39Z</time>
      </trkpt>
      <trkpt lat="41.964817" lon="-4.68903">
        <time>2022-02-02T07:18:39Z</time>
      </trkpt>
      <trkpt lat="41.963766" lon="-4.687123">
        <time>2022-02-02T07:18:39Z</time>
      </trkpt>
      <trkpt lat="41.964612" lon="-4.686951">
        <time>2022-02-02T07:18:39Z</time>
      </trkpt>
      <trkpt lat="41.965138" lon="-4.68657">
        <time>2022-02-02T07:18:39Z</time>
      </trkpt>
      <trkpt lat="41.969436" lon="-4.681753">
        <time>2022-02-02T07:18:39Z</time>
      </trkpt>
      <trkpt lat="41.970098" lon="-4.681525">
        <time>2022-02-02T07:18:39Z</time>
      </trkpt>
      <trkpt lat="41.975175" lon="-4.681375">
        <time>2022-02-02T07:18:39Z</time>
      </trkpt>
      <trkpt lat="41.975371" lon="-4.681144">
        <time>2022-02-02T07:18:39Z</time>
      </trkpt>
      <trkpt lat="41.975857" lon="-4.681005">
        <time>2022-02-02T07:18:39Z</time>
      </trkpt>
      <trkpt lat="41.975931" lon="-4.680747">
        <time>2022-02-02T07:18:39Z</time>
      </trkpt>
      <trkpt lat="41.975149" lon="-4.674827">
        <time>2022-02-02T07:18:39Z</time>
      </trkpt>
      <trkpt lat="41.975704" lon="-4.669468">
        <time>2022-02-02T07:18:39Z</time>
      </trkpt>
      <trkpt lat="41.973815" lon="-4.665622">
        <time>2022-02-02T07:18:39Z</time>
      </trkpt>
      <trkpt lat="41.973761" lon="-4.664895">
        <time>2022-02-02T07:18:39Z</time>
      </trkpt>
      <trkpt lat="41.974035" lon="-4.66383">
        <time>2022-02-02T07:18:39Z</time>
      </trkpt>
      <trkpt lat="41.973636" lon="-4.663141">
        <time>2022-02-02T07:18:39Z</time>
      </trkpt>
      <trkpt lat="41.972453" lon="-4.661985">
        <time>2022-02-02T07:18:39Z</time>
      </trkpt>
      <trkpt lat="41.971795" lon="-4.660923">
        <time>2022-02-02T07:18:39Z</time>
      </trkpt>
      <trkpt lat="41.970718" lon="-4.661384">
        <time>2022-02-02T07:18:39Z</time>
      </trkpt>
      <trkpt lat="41.969634" lon="-4.660757">
        <time>2022-02-02T07:18:39Z</time>
      </trkpt>
      <trkpt lat="41.96872" lon="-4.659845">
        <time>2022-02-02T07:18:39Z</time>
      </trkpt>
      <trkpt lat="41.96791" lon="-4.658364">
        <time>2022-02-02T07:18:39Z</time>
      </trkpt>
      <trkpt lat="41.967428" lon="-4.657763">
        <time>2022-02-02T07:18:39Z</time>
      </trkpt>
      <trkpt lat="41.966614" lon="-4.655548">
        <time>2022-02-02T07:18:39Z</time>
      </trkpt>
      <trkpt lat="41.965629" lon="-4.654453">
        <time>2022-02-02T07:18:39Z</time>
      </trkpt>
      <trkpt lat="41.965039" lon="-4.653171">
        <time>2022-02-02T07:18:39Z</time>
      </trkpt>
      <trkpt lat="41.965314" lon="-4.652474">
        <time>2022-02-02T07:18:39Z</time>
      </trkpt>
      <trkpt lat="41.964984" lon="-4.651762">
        <time>2022-02-02T07:18:39Z</time>
      </trkpt>
      <trkpt lat="41.965279" lon="-4.650378">
        <time>2022-02-02T07:18:39Z</time>
      </trkpt>
      <trkpt lat="41.965168" lon="-4.650185">
        <time>2022-02-02T07:18:39Z</time>
      </trkpt>
      <trkpt lat="41.964381" lon="-4.649727">
        <time>2022-02-02T07:18:39Z</time>
      </trkpt>
      <trkpt lat="41.963216" lon="-4.648284">
        <time>2022-02-02T07:18:39Z</time>
      </trkpt>
      <trkpt lat="41.962047" lon="-4.642571">
        <time>2022-02-02T07:18:39Z</time>
      </trkpt>
      <trkpt lat="41.961592" lon="-4.63807">
        <time>2022-02-02T07:18:39Z</time>
      </trkpt>
      <trkpt lat="41.961277" lon="-4.637201">
        <time>2022-02-02T07:18:39Z</time>
      </trkpt>
      <trkpt lat="41.961018" lon="-4.635581">
        <time>2022-02-02T07:18:39Z</time>
      </trkpt>
      <trkpt lat="41.958816" lon="-4.626768">
        <time>2022-02-02T07:18:39Z</time>
      </trkpt>
      <trkpt lat="41.957688" lon="-4.623665">
        <time>2022-02-02T07:18:39Z</time>
      </trkpt>
      <trkpt lat="41.976174" lon="-4.59677">
        <time>2022-02-02T07:18:39Z</time>
      </trkpt>
      <trkpt lat="41.978958" lon="-4.593101">
        <time>2022-02-02T07:18:39Z</time>
      </trkpt>
      <trkpt lat="41.980158" lon="-4.589844">
        <time>2022-02-02T07:18:39Z</time>
      </trkpt>
      <trkpt lat="41.981566" lon="-4.58802">
        <time>2022-02-02T07:18:39Z</time>
      </trkpt>
      <trkpt lat="41.982068" lon="-4.587017">
        <time>2022-02-02T07:18:39Z</time>
      </trkpt>
      <trkpt lat="41.982776" lon="-4.582994">
        <time>2022-02-02T07:18:39Z</time>
      </trkpt>
      <trkpt lat="41.98331" lon="-4.581409">
        <time>2022-02-02T07:18:39Z</time>
      </trkpt>
      <trkpt lat="41.986678" lon="-4.576423">
        <time>2022-02-02T07:18:39Z</time>
      </trkpt>
      <trkpt lat="41.98909" lon="-4.572249">
        <time>2022-02-02T07:18:39Z</time>
      </trkpt>
      <trkpt lat="41.991165" lon="-4.569975">
        <time>2022-02-02T07:18:39Z</time>
      </trkpt>
      <trkpt lat="41.996793" lon="-4.562615">
        <time>2022-02-02T07:18:39Z</time>
      </trkpt>
      <trkpt lat="41.999624" lon="-4.559417">
        <time>2022-02-02T07:18:39Z</time>
      </trkpt>
      <trkpt lat="42.000855" lon="-4.557599">
        <time>2022-02-02T07:18:39Z</time>
      </trkpt>
      <trkpt lat="42.004595" lon="-4.55128">
        <time>2022-02-02T07:18:39Z</time>
      </trkpt>
      <trkpt lat="42.007106" lon="-4.543893">
        <time>2022-02-02T07:18:39Z</time>
      </trkpt>
      <trkpt lat="42.008254" lon="-4.54098">
        <time>2022-02-02T07:18:39Z</time>
      </trkpt>
      <trkpt lat="42.008369" lon="-4.540966">
        <time>2022-02-02T07:18:39Z</time>
      </trkpt>
      <trkpt lat="42.008593" lon="-4.541664">
        <time>2022-02-02T07:18:39Z</time>
      </trkpt>
      <trkpt lat="42.00929" lon="-4.542573">
        <time>2022-02-02T07:18:39Z</time>
      </trkpt>
      <trkpt lat="42.010637" lon="-4.545733">
        <time>2022-02-02T07:18:39Z</time>
      </trkpt>
      <trkpt lat="42.010869" lon="-4.545899">
        <time>2022-02-02T07:18:39Z</time>
      </trkpt>
      <trkpt lat="42.010829" lon="-4.545955">
        <time>2022-02-02T07:19:17Z</time>
      </trkpt>
      <trkpt lat="42.010715" lon="-4.546033">
        <time>2022-02-02T07:19:17Z</time>
      </trkpt>
      <trkpt lat="42.010847" lon="-4.546398">
        <time>2022-02-02T07:19:17Z</time>
      </trkpt>
      <trkpt lat="42.011708" lon="-4.548131">
        <time>2022-02-02T07:19:17Z</time>
      </trkpt>
      <trkpt lat="42.02797" lon="-4.577796">
        <time>2022-02-02T07:19:17Z</time>
      </trkpt>
      <trkpt lat="42.028041" lon="-4.577367">
        <time>2022-02-02T07:19:17Z</time>
      </trkpt>
      <trkpt lat="42.027029" lon="-4.573638">
        <time>2022-02-02T07:19:17Z</time>
      </trkpt>
      <trkpt lat="42.0274" lon="-4.573107">
        <time>2022-02-02T07:19:17Z</time>
      </trkpt>
      <trkpt lat="42.028543" lon="-4.57204">
        <time>2022-02-02T07:19:17Z</time>
      </trkpt>
      <trkpt lat="42.030261" lon="-4.569899">
        <time>2022-02-02T07:19:17Z</time>
      </trkpt>
      <trkpt lat="42.030444" lon="-4.56946">
        <time>2022-02-02T07:19:17Z</time>
      </trkpt>
      <trkpt lat="42.030006" lon="-4.568435">
        <time>2022-02-02T07:19:17Z</time>
      </trkpt>
      <trkpt lat="42.029906" lon="-4.567008">
        <time>2022-02-02T07:19:17Z</time>
      </trkpt>
      <trkpt lat="42.029978" lon="-4.565833">
        <time>2022-02-02T07:19:17Z</time>
      </trkpt>
      <trkpt lat="42.03052" lon="-4.564353">
        <time>2022-02-02T07:19:17Z</time>
      </trkpt>
      <trkpt lat="42.030448" lon="-4.564122">
        <time>2022-02-02T07:19:17Z</time>
      </trkpt>
      <trkpt lat="42.031197" lon="-4.563221">
        <time>2022-02-02T07:19:17Z</time>
      </trkpt>
      <trkpt lat="42.03256" lon="-4.561">
        <time>2022-02-02T07:19:17Z</time>
      </trkpt>
      <trkpt lat="42.03297" lon="-4.559637">
        <time>2022-02-02T07:19:17Z</time>
      </trkpt>
      <trkpt lat="42.033221" lon="-4.559246">
        <time>2022-02-02T07:19:17Z</time>
      </trkpt>
      <trkpt lat="42.033644" lon="-4.558784">
        <time>2022-02-02T07:19:17Z</time>
      </trkpt>
      <trkpt lat="42.034381" lon="-4.558597">
        <time>2022-02-02T07:19:17Z</time>
      </trkpt>
      <trkpt lat="42.033982" lon="-4.557234">
        <time>2022-02-02T07:19:17Z</time>
      </trkpt>
      <trkpt lat="42.031524" lon="-4.555303">
        <time>2022-02-02T07:19:17Z</time>
      </trkpt>
      <trkpt lat="42.03103" lon="-4.555324">
        <time>2022-02-02T07:19:17Z</time>
      </trkpt>
      <trkpt lat="42.030831" lon="-4.554579">
        <time>2022-02-02T07:19:17Z</time>
      </trkpt>
      <trkpt lat="42.031062" lon="-4.554402">
        <time>2022-02-02T07:19:17Z</time>
      </trkpt>
      <trkpt lat="42.031428" lon="-4.554514">
        <time>2022-02-02T07:19:17Z</time>
      </trkpt>
      <trkpt lat="42.031663" lon="-4.55511">
        <time>2022-02-02T07:19:17Z</time>
      </trkpt>
      <trkpt lat="42.034313" lon="-4.557089">
        <time>2022-02-02T07:19:17Z</time>
      </trkpt>
      <trkpt lat="42.034472" lon="-4.556494">
        <time>2022-02-02T07:19:17Z</time>
      </trkpt>
      <trkpt lat="42.034357" lon="-4.555662">
        <time>2022-02-02T07:19:17Z</time>
      </trkpt>
      <trkpt lat="42.034484" lon="-4.554981">
        <time>2022-02-02T07:19:17Z</time>
      </trkpt>
      <trkpt lat="42.03517" lon="-4.553506">
        <time>2022-02-02T07:19:17Z</time>
      </trkpt>
      <trkpt lat="42.035716" lon="-4.551381">
        <time>2022-02-02T07:19:17Z</time>
      </trkpt>
      <trkpt lat="42.037277" lon="-4.548528">
        <time>2022-02-02T07:19:17Z</time>
      </trkpt>
      <trkpt lat="42.037341" lon="-4.547197">
        <time>2022-02-02T07:19:17Z</time>
      </trkpt>
      <trkpt lat="42.038321" lon="-4.543753">
        <time>2022-02-02T07:19:17Z</time>
      </trkpt>
      <trkpt lat="42.038568" lon="-4.543319">
        <time>2022-02-02T07:19:17Z</time>
      </trkpt>
      <trkpt lat="42.039038" lon="-4.543222">
        <time>2022-02-02T07:19:17Z</time>
      </trkpt>
      <trkpt lat="42.038457" lon="-4.538571">
        <time>2022-02-02T07:19:17Z</time>
      </trkpt>
      <trkpt lat="42.03858" lon="-4.533818">
        <time>2022-02-02T07:19:17Z</time>
      </trkpt>
      <trkpt lat="42.038405" lon="-4.529698">
        <time>2022-02-02T07:19:17Z</time>
      </trkpt>
      <trkpt lat="42.040728" lon="-4.527043">
        <time>2022-02-02T07:19:17Z</time>
      </trkpt>
      <trkpt lat="42.041967" lon="-4.527687">
        <time>2022-02-02T07:19:17Z</time>
      </trkpt>
      <trkpt lat="42.042469" lon="-4.529071">
        <time>2022-02-02T07:19:17Z</time>
      </trkpt>
      <trkpt lat="42.042345" lon="-4.527831">
        <time>2022-02-02T07:19:17Z</time>
      </trkpt>
      <trkpt lat="42.042518" lon="-4.52749">
        <time>2022-02-02T07:19:17Z</time>
      </trkpt>
      <trkpt lat="42.043947" lon="-4.526179">
        <time>2022-02-02T07:19:17Z</time>
      </trkpt>
      <trkpt lat="42.045711" lon="-4.525034">
        <time>2022-02-02T07:19:17Z</time>
      </trkpt>
      <trkpt lat="42.047159" lon="-4.523841">
        <time>2022-02-02T07:19:17Z</time>
      </trkpt>
      <trkpt lat="42.047387" lon="-4.525305">
        <time>2022-02-02T07:19:17Z</time>
      </trkpt>
      <trkpt lat="42.047277" lon="-4.528508">
        <time>2022-02-02T07:19:17Z</time>
      </trkpt>
      <trkpt lat="42.046815" lon="-4.531348">
        <time>2022-02-02T07:19:17Z</time>
      </trkpt>
      <trkpt lat="42.046494" lon="-4.535312">
        <time>2022-02-02T07:19:17Z</time>
      </trkpt>
      <trkpt lat="42.046588" lon="-4.537171">
        <time>2022-02-02T07:19:17Z</time>
      </trkpt>
      <trkpt lat="42.046715" lon="-4.537284">
        <time>2022-02-02T07:19:17Z</time>
      </trkpt>
      <trkpt lat="42.054033" lon="-4.535149">
        <time>2022-02-02T07:19:17Z</time>
      </trkpt>
      <trkpt lat="42.054272" lon="-4.534813">
        <time>2022-02-02T07:19:17Z</time>
      </trkpt>
      <trkpt lat="42.055176" lon="-4.531839">
        <time>2022-02-02T07:19:17Z</time>
      </trkpt>
      <trkpt lat="42.055518" lon="-4.531592">
        <time>2022-02-02T07:19:17Z</time>
      </trkpt>
      <trkpt lat="42.061533" lon="-4.534862">
        <time>2022-02-02T07:19:17Z</time>
      </trkpt>
      <trkpt lat="42.062218" lon="-4.53381">
        <time>2022-02-02T07:19:17Z</time>
      </trkpt>
      <trkpt lat="42.068592" lon="-4.533226">
        <time>2022-02-02T07:19:17Z</time>
      </trkpt>
      <trkpt lat="42.068675" lon="-4.530466">
        <time>2022-02-02T07:19:17Z</time>
      </trkpt>
      <trkpt lat="42.071496" lon="-4.526019">
        <time>2022-02-02T07:19:17Z</time>
      </trkpt>
      <trkpt lat="42.071433" lon="-4.525654">
        <time>2022-02-02T07:19:17Z</time>
      </trkpt>
      <trkpt lat="42.070561" lon="-4.524001">
        <time>2022-02-02T07:19:17Z</time>
      </trkpt>
      <trkpt lat="42.072518" lon="-4.520249">
        <time>2022-02-02T07:19:17Z</time>
      </trkpt>
      <trkpt lat="42.072791" lon="-4.5193">
        <time>2022-02-02T07:19:17Z</time>
      </trkpt>
      <trkpt lat="42.073253" lon="-4.516102">
        <time>2022-02-02T07:19:17Z</time>
      </trkpt>
      <trkpt lat="42.076084" lon="-4.511443">
        <time>2022-02-02T07:19:17Z</time>
      </trkpt>
      <trkpt lat="42.074264" lon="-4.505526">
        <time>2022-02-02T07:19:17Z</time>
      </trkpt>
      <trkpt lat="42.076167" lon="-4.504462">
        <time>2022-02-02T07:19:17Z</time>
      </trkpt>
      <trkpt lat="42.080304" lon="-4.502474">
        <time>2022-02-02T07:19:17Z</time>
      </trkpt>
      <trkpt lat="42.080161" lon="-4.501809">
        <time>2022-02-02T07:19:17Z</time>
      </trkpt>
      <trkpt lat="42.079084" lon="-4.50091">
        <time>2022-02-02T07:19:17Z</time>
      </trkpt>
      <trkpt lat="42.079307" lon="-4.499003">
        <time>2022-02-02T07:19:17Z</time>
      </trkpt>
      <trkpt lat="42.079179" lon="-4.497161">
        <time>2022-02-02T07:19:17Z</time>
      </trkpt>
      <trkpt lat="42.080173" lon="-4.49531">
        <time>2022-02-02T07:19:17Z</time>
      </trkpt>
      <trkpt lat="42.080724" lon="-4.493762">
        <time>2022-02-02T07:19:17Z</time>
      </trkpt>
      <trkpt lat="42.08256" lon="-4.490262">
        <time>2022-02-02T07:19:17Z</time>
      </trkpt>
      <trkpt lat="42.082862" lon="-4.489892">
        <time>2022-02-02T07:19:17Z</time>
      </trkpt>
      <trkpt lat="42.083559" lon="-4.48957">
        <time>2022-02-02T07:19:17Z</time>
      </trkpt>
      <trkpt lat="42.083597" lon="-4.488567">
        <time>2022-02-02T07:19:17Z</time>
      </trkpt>
      <trkpt lat="42.083794" lon="-4.488146">
        <time>2022-02-02T07:19:17Z</time>
      </trkpt>
      <trkpt lat="42.08466" lon="-4.48781">
        <time>2022-02-02T07:19:17Z</time>
      </trkpt>
      <trkpt lat="42.084867" lon="-4.487295">
        <time>2022-02-02T07:19:17Z</time>
      </trkpt>
      <trkpt lat="42.085589" lon="-4.486481">
        <time>2022-02-02T07:19:17Z</time>
      </trkpt>
      <trkpt lat="42.087164" lon="-4.485126">
        <time>2022-02-02T07:19:17Z</time>
      </trkpt>
      <trkpt lat="42.088107" lon="-4.483919">
        <time>2022-02-02T07:19:17Z</time>
      </trkpt>
      <trkpt lat="42.088695" lon="-4.482824">
        <time>2022-02-02T07:19:17Z</time>
      </trkpt>
      <trkpt lat="42.088904" lon="-4.482749">
        <time>2022-02-02T07:19:17Z</time>
      </trkpt>
      <trkpt lat="42.089236" lon="-4.483122">
        <time>2022-02-02T07:19:17Z</time>
      </trkpt>
      <trkpt lat="42.089383" lon="-4.482993">
        <time>2022-02-02T07:19:17Z</time>
      </trkpt>
      <trkpt lat="42.089547" lon="-4.482105">
        <time>2022-02-02T07:19:17Z</time>
      </trkpt>
      <trkpt lat="42.089407" lon="-4.479946">
        <time>2022-02-02T07:19:17Z</time>
      </trkpt>
      <trkpt lat="42.08966" lon="-4.480035">
        <time>2022-02-02T07:19:17Z</time>
      </trkpt>
      <trkpt lat="42.090193" lon="-4.479624">
        <time>2022-02-02T07:19:17Z</time>
      </trkpt>
      <trkpt lat="42.090649" lon="-4.479729">
        <time>2022-02-02T07:19:17Z</time>
      </trkpt>
      <trkpt lat="42.091146" lon="-4.480559">
        <time>2022-02-02T07:19:17Z</time>
      </trkpt>
      <trkpt lat="42.091622" lon="-4.480913">
        <time>2022-02-02T07:19:17Z</time>
      </trkpt>
      <trkpt lat="42.091995" lon="-4.481424">
        <time>2022-02-02T07:19:17Z</time>
      </trkpt>
      <trkpt lat="42.092978" lon="-4.481725">
        <time>2022-02-02T07:19:17Z</time>
      </trkpt>
      <trkpt lat="42.093241" lon="-4.482199">
        <time>2022-02-02T07:19:17Z</time>
      </trkpt>
      <trkpt lat="42.093575" lon="-4.48236">
        <time>2022-02-02T07:19:17Z</time>
      </trkpt>
      <trkpt lat="42.093802" lon="-4.482733">
        <time>2022-02-02T07:19:17Z</time>
      </trkpt>
      <trkpt lat="42.095997" lon="-4.476518">
        <time>2022-02-02T07:19:17Z</time>
      </trkpt>
      <trkpt lat="42.096823" lon="-4.474917">
        <time>2022-02-02T07:19:17Z</time>
      </trkpt>
      <trkpt lat="42.098145" lon="-4.471774">
        <time>2022-02-02T07:19:17Z</time>
      </trkpt>
      <trkpt lat="42.099094" lon="-4.470073">
        <time>2022-02-02T07:19:17Z</time>
      </trkpt>
      <trkpt lat="42.101011" lon="-4.473517">
        <time>2022-02-02T07:19:17Z</time>
      </trkpt>
      <trkpt lat="42.10202" lon="-4.471535">
        <time>2022-02-02T07:19:17Z</time>
      </trkpt>
      <trkpt lat="42.10309" lon="-4.470355">
        <time>2022-02-02T07:19:17Z</time>
      </trkpt>
      <trkpt lat="42.103626" lon="-4.469542">
        <time>2022-02-02T07:19:17Z</time>
      </trkpt>
      <trkpt lat="42.104885" lon="-4.466852">
        <time>2022-02-02T07:19:17Z</time>
      </trkpt>
      <trkpt lat="42.105701" lon="-4.464663">
        <time>2022-02-02T07:19:17Z</time>
      </trkpt>
      <trkpt lat="42.106485" lon="-4.463239">
        <time>2022-02-02T07:19:17Z</time>
      </trkpt>
      <trkpt lat="42.108192" lon="-4.461627">
        <time>2022-02-02T07:19:17Z</time>
      </trkpt>
      <trkpt lat="42.109215" lon="-4.461058">
        <time>2022-02-02T07:19:17Z</time>
      </trkpt>
      <trkpt lat="42.110948" lon="-4.4598">
        <time>2022-02-02T07:19:17Z</time>
      </trkpt>
      <trkpt lat="42.112867" lon="-4.458853">
        <time>2022-02-02T07:19:17Z</time>
      </trkpt>
      <trkpt lat="42.113278" lon="-4.457552">
        <time>2022-02-02T07:19:17Z</time>
      </trkpt>
      <trkpt lat="42.120785" lon="-4.442057">
        <time>2022-02-02T07:19:17Z</time>
      </trkpt>
      <trkpt lat="42.120829" lon="-4.441789">
        <time>2022-02-02T07:19:17Z</time>
      </trkpt>
      <trkpt lat="42.117475" lon="-4.427544">
        <time>2022-02-02T07:19:17Z</time>
      </trkpt>
      <trkpt lat="42.118507" lon="-4.425334">
        <time>2022-02-02T07:19:17Z</time>
      </trkpt>
      <trkpt lat="42.119187" lon="-4.426205">
        <time>2022-02-02T07:19:17Z</time>
      </trkpt>
      <trkpt lat="42.119822" lon="-4.426184">
        <time>2022-02-02T07:19:17Z</time>
      </trkpt>
      <trkpt lat="42.121637" lon="-4.426745">
        <time>2022-02-02T07:19:17Z</time>
      </trkpt>
      <trkpt lat="42.123523" lon="-4.426417">
        <time>2022-02-02T07:19:17Z</time>
      </trkpt>
      <trkpt lat="42.124422" lon="-4.42594">
        <time>2022-02-02T07:19:17Z</time>
      </trkpt>
      <trkpt lat="42.124718" lon="-4.425382">
        <time>2022-02-02T07:19:17Z</time>
      </trkpt>
      <trkpt lat="42.12517" lon="-4.425312">
        <time>2022-02-02T07:19:17Z</time>
      </trkpt>
      <trkpt lat="42.124993" lon="-4.424352">
        <time>2022-02-02T07:19:17Z</time>
      </trkpt>
      <trkpt lat="42.127818" lon="-4.416185">
        <time>2022-02-02T07:19:17Z</time>
      </trkpt>
      <trkpt lat="42.124507" lon="-4.409745">
        <time>2022-02-02T07:19:17Z</time>
      </trkpt>
      <trkpt lat="42.133507" lon="-4.396918">
        <time>2022-02-02T07:19:17Z</time>
      </trkpt>
      <trkpt lat="42.136868" lon="-4.402755">
        <time>2022-02-02T07:19:17Z</time>
      </trkpt>
      <trkpt lat="42.137711" lon="-4.404627">
        <time>2022-02-02T07:19:17Z</time>
      </trkpt>
      <trkpt lat="42.140488" lon="-4.40989">
        <time>2022-02-02T07:19:17Z</time>
      </trkpt>
      <trkpt lat="42.147512" lon="-4.395754">
        <time>2022-02-02T07:19:17Z</time>
      </trkpt>
      <trkpt lat="42.154023" lon="-4.38678">
        <time>2022-02-02T07:19:17Z</time>
      </trkpt>
      <trkpt lat="42.147425" lon="-4.378379">
        <time>2022-02-02T07:19:17Z</time>
      </trkpt>
      <trkpt lat="42.171272" lon="-4.360907">
        <time>2022-02-02T07:19:17Z</time>
      </trkpt>
      <trkpt lat="42.178682" lon="-4.350387">
        <time>2022-02-02T07:19:17Z</time>
      </trkpt>
      <trkpt lat="42.178762" lon="-4.350232">
        <time>2022-02-02T07:19:17Z</time>
      </trkpt>
      <trkpt lat="42.176512" lon="-4.347217">
        <time>2022-02-02T07:19:17Z</time>
      </trkpt>
      <trkpt lat="42.178778" lon="-4.33832">
        <time>2022-02-02T07:19:17Z</time>
      </trkpt>
      <trkpt lat="42.178237" lon="-4.337035">
        <time>2022-02-02T07:19:17Z</time>
      </trkpt>
      <trkpt lat="42.178673" lon="-4.336212">
        <time>2022-02-02T07:19:17Z</time>
      </trkpt>
      <trkpt lat="42.179442" lon="-4.333457">
        <time>2022-02-02T07:19:17Z</time>
      </trkpt>
      <trkpt lat="42.180277" lon="-4.332092">
        <time>2022-02-02T07:19:17Z</time>
      </trkpt>
      <trkpt lat="42.181855" lon="-4.33195">
        <time>2022-02-02T07:19:17Z</time>
      </trkpt>
      <trkpt lat="42.184486" lon="-4.329482">
        <time>2022-02-02T07:19:17Z</time>
      </trkpt>
      <trkpt lat="42.187863" lon="-4.329501">
        <time>2022-02-02T07:19:17Z</time>
      </trkpt>
      <trkpt lat="42.191162" lon="-4.326824">
        <time>2022-02-02T07:19:17Z</time>
      </trkpt>
      <trkpt lat="42.189761" lon="-4.321353">
        <time>2022-02-02T07:19:17Z</time>
      </trkpt>
      <trkpt lat="42.18958" lon="-4.319609">
        <time>2022-02-02T07:19:17Z</time>
      </trkpt>
      <trkpt lat="42.189506" lon="-4.318035">
        <time>2022-02-02T07:19:17Z</time>
      </trkpt>
      <trkpt lat="42.189824" lon="-4.317013">
        <time>2022-02-02T07:19:17Z</time>
      </trkpt>
      <trkpt lat="42.189946" lon="-4.314727">
        <time>2022-02-02T07:19:17Z</time>
      </trkpt>
      <trkpt lat="42.189882" lon="-4.311267">
        <time>2022-02-02T07:19:17Z</time>
      </trkpt>
      <trkpt lat="42.190081" lon="-4.309234">
        <time>2022-02-02T07:19:17Z</time>
      </trkpt>
      <trkpt lat="42.190395" lon="-4.308234">
        <time>2022-02-02T07:19:17Z</time>
      </trkpt>
      <trkpt lat="42.189602" lon="-4.299774">
        <time>2022-02-02T07:19:17Z</time>
      </trkpt>
      <trkpt lat="42.190645" lon="-4.299755">
        <time>2022-02-02T07:19:17Z</time>
      </trkpt>
      <trkpt lat="42.19143" lon="-4.299576">
        <time>2022-02-02T07:19:17Z</time>
      </trkpt>
      <trkpt lat="42.191913" lon="-4.299369">
        <time>2022-02-02T07:19:17Z</time>
      </trkpt>
      <trkpt lat="42.192259" lon="-4.298937">
        <time>2022-02-02T07:19:17Z</time>
      </trkpt>
      <trkpt lat="42.193332" lon="-4.29942">
        <time>2022-02-02T07:19:17Z</time>
      </trkpt>
      <trkpt lat="42.194771" lon="-4.30259">
        <time>2022-02-02T07:19:17Z</time>
      </trkpt>
      <trkpt lat="42.194808" lon="-4.30314">
        <time>2022-02-02T07:19:17Z</time>
      </trkpt>
      <trkpt lat="42.19461" lon="-4.304071">
        <time>2022-02-02T07:19:17Z</time>
      </trkpt>
      <trkpt lat="42.195224" lon="-4.305994">
        <time>2022-02-02T07:19:17Z</time>
      </trkpt>
      <trkpt lat="42.195212" lon="-4.30652">
        <time>2022-02-02T07:19:17Z</time>
      </trkpt>
      <trkpt lat="42.198592" lon="-4.306107">
        <time>2022-02-02T07:19:17Z</time>
      </trkpt>
      <trkpt lat="42.200152" lon="-4.310208">
        <time>2022-02-02T07:19:17Z</time>
      </trkpt>
      <trkpt lat="42.201562" lon="-4.305879">
        <time>2022-02-02T07:19:17Z</time>
      </trkpt>
      <trkpt lat="42.202874" lon="-4.308127">
        <time>2022-02-02T07:19:17Z</time>
      </trkpt>
      <trkpt lat="42.210678" lon="-4.305718">
        <time>2022-02-02T07:19:17Z</time>
      </trkpt>
      <trkpt lat="42.212784" lon="-4.304084">
        <time>2022-02-02T07:19:17Z</time>
      </trkpt>
      <trkpt lat="42.213469" lon="-4.305286">
        <time>2022-02-02T07:19:17Z</time>
      </trkpt>
      <trkpt lat="42.214599" lon="-4.307866">
        <time>2022-02-02T07:19:17Z</time>
      </trkpt>
      <trkpt lat="42.214893" lon="-4.308271">
        <time>2022-02-02T07:19:17Z</time>
      </trkpt>
      <trkpt lat="42.216081" lon="-4.309122">
        <time>2022-02-02T07:19:17Z</time>
      </trkpt>
      <trkpt lat="42.216341" lon="-4.310283">
        <time>2022-02-02T07:19:17Z</time>
      </trkpt>
      <trkpt lat="42.216252" lon="-4.31068">
        <time>2022-02-02T07:19:17Z</time>
      </trkpt>
      <trkpt lat="42.215666" lon="-4.311453">
        <time>2022-02-02T07:19:17Z</time>
      </trkpt>
      <trkpt lat="42.215418" lon="-4.315959">
        <time>2022-02-02T07:19:17Z</time>
      </trkpt>
      <trkpt lat="42.215477" lon="-4.317182">
        <time>2022-02-02T07:19:17Z</time>
      </trkpt>
      <trkpt lat="42.215819" lon="-4.318678">
        <time>2022-02-02T07:19:17Z</time>
      </trkpt>
      <trkpt lat="42.216109" lon="-4.321159">
        <time>2022-02-02T07:19:17Z</time>
      </trkpt>
      <trkpt lat="42.216182" lon="-4.322793">
        <time>2022-02-02T07:19:17Z</time>
      </trkpt>
      <trkpt lat="42.216939" lon="-4.321235">
        <time>2022-02-02T07:19:17Z</time>
      </trkpt>
      <trkpt lat="42.217476" lon="-4.319687">
        <time>2022-02-02T07:19:17Z</time>
      </trkpt>
      <trkpt lat="42.218723" lon="-4.317756">
        <time>2022-02-02T07:19:17Z</time>
      </trkpt>
      <trkpt lat="42.219025" lon="-4.316377">
        <time>2022-02-02T07:19:17Z</time>
      </trkpt>
      <trkpt lat="42.219843" lon="-4.314309">
        <time>2022-02-02T07:19:17Z</time>
      </trkpt>
      <trkpt lat="42.220487" lon="-4.311978">
        <time>2022-02-02T07:19:17Z</time>
      </trkpt>
      <trkpt lat="42.220811" lon="-4.308915">
        <time>2022-02-02T07:19:17Z</time>
      </trkpt>
      <trkpt lat="42.221661" lon="-4.307086">
        <time>2022-02-02T07:19:17Z</time>
      </trkpt>
      <trkpt lat="42.222948" lon="-4.306083">
        <time>2022-02-02T07:19:17Z</time>
      </trkpt>
      <trkpt lat="42.226899" lon="-4.301512">
        <time>2022-02-02T07:19:17Z</time>
      </trkpt>
      <trkpt lat="42.228013" lon="-4.301102">
        <time>2022-02-02T07:19:17Z</time>
      </trkpt>
      <trkpt lat="42.22873" lon="-4.300533">
        <time>2022-02-02T07:19:17Z</time>
      </trkpt>
      <trkpt lat="42.23007" lon="-4.299991">
        <time>2022-02-02T07:19:17Z</time>
      </trkpt>
      <trkpt lat="42.231435" lon="-4.298959">
        <time>2022-02-02T07:19:17Z</time>
      </trkpt>
      <trkpt lat="42.233467" lon="-4.29805">
        <time>2022-02-02T07:19:17Z</time>
      </trkpt>
      <trkpt lat="42.234038" lon="-4.297234">
        <time>2022-02-02T07:19:17Z</time>
      </trkpt>
      <trkpt lat="42.236247" lon="-4.296223">
        <time>2022-02-02T07:19:17Z</time>
      </trkpt>
      <trkpt lat="42.238264" lon="-4.29405">
        <time>2022-02-02T07:19:17Z</time>
      </trkpt>
      <trkpt lat="42.238983" lon="-4.293471">
        <time>2022-02-02T07:19:17Z</time>
      </trkpt>
      <trkpt lat="42.240621" lon="-4.292766">
        <time>2022-02-02T07:19:17Z</time>
      </trkpt>
      <trkpt lat="42.242601" lon="-4.29529">
        <time>2022-02-02T07:19:17Z</time>
      </trkpt>
      <trkpt lat="42.244853" lon="-4.292492">
        <time>2022-02-02T07:19:17Z</time>
      </trkpt>
      <trkpt lat="42.246775" lon="-4.289681">
        <time>2022-02-02T07:19:17Z</time>
      </trkpt>
      <trkpt lat="42.247376" lon="-4.287956">
        <time>2022-02-02T07:19:17Z</time>
      </trkpt>
      <trkpt lat="42.248921" lon="-4.285534">
        <time>2022-02-02T07:19:17Z</time>
      </trkpt>
      <trkpt lat="42.249848" lon="-4.28445">
        <time>2022-02-02T07:19:17Z</time>
      </trkpt>
      <trkpt lat="42.250416" lon="-4.28179">
        <time>2022-02-02T07:19:17Z</time>
      </trkpt>
      <trkpt lat="42.251026" lon="-4.280336">
        <time>2022-02-02T07:19:17Z</time>
      </trkpt>
      <trkpt lat="42.251748" lon="-4.277139">
        <time>2022-02-02T07:19:17Z</time>
      </trkpt>
      <trkpt lat="42.251895" lon="-4.275382">
        <time>2022-02-02T07:19:17Z</time>
      </trkpt>
      <trkpt lat="42.252364" lon="-4.273129">
        <time>2022-02-02T07:19:17Z</time>
      </trkpt>
      <trkpt lat="42.253023" lon="-4.266829">
        <time>2022-02-02T07:19:17Z</time>
      </trkpt>
      <trkpt lat="42.25372" lon="-4.264986">
        <time>2022-02-02T07:19:17Z</time>
      </trkpt>
      <trkpt lat="42.254133" lon="-4.262961">
        <time>2022-02-02T07:19:17Z</time>
      </trkpt>
      <trkpt lat="42.255205" lon="-4.260102">
        <time>2022-02-02T07:19:17Z</time>
      </trkpt>
      <trkpt lat="42.254282" lon="-4.258114">
        <time>2022-02-02T07:19:17Z</time>
      </trkpt>
      <trkpt lat="42.255308" lon="-4.257638">
        <time>2022-02-02T07:19:17Z</time>
      </trkpt>
      <trkpt lat="42.255906" lon="-4.256655">
        <time>2022-02-02T07:19:17Z</time>
      </trkpt>
      <trkpt lat="42.255963" lon="-4.256027">
        <time>2022-02-02T07:19:17Z</time>
      </trkpt>
      <trkpt lat="42.256487" lon="-4.255797">
        <time>2022-02-02T07:19:17Z</time>
      </trkpt>
      <trkpt lat="42.256753" lon="-4.256017">
        <time>2022-02-02T07:19:17Z</time>
      </trkpt>
      <trkpt lat="42.257309" lon="-4.25526">
        <time>2022-02-02T07:19:17Z</time>
      </trkpt>
      <trkpt lat="42.259278" lon="-4.254354">
        <time>2022-02-02T07:19:17Z</time>
      </trkpt>
      <trkpt lat="42.262848" lon="-4.255657">
        <time>2022-02-02T07:19:17Z</time>
      </trkpt>
      <trkpt lat="42.265865" lon="-4.255469">
        <time>2022-02-02T07:19:17Z</time>
      </trkpt>
      <trkpt lat="42.267981" lon="-4.256676">
        <time>2022-02-02T07:19:17Z</time>
      </trkpt>
      <trkpt lat="42.272514" lon="-4.255931">
        <time>2022-02-02T07:19:17Z</time>
      </trkpt>
      <trkpt lat="42.272665" lon="-4.256011">
        <time>2022-02-02T07:19:17Z</time>
      </trkpt>
      <trkpt lat="42.277837" lon="-4.246685">
        <time>2022-02-02T07:19:17Z</time>
      </trkpt>
      <trkpt lat="42.278702" lon="-4.244692">
        <time>2022-02-02T07:19:17Z</time>
      </trkpt>
      <trkpt lat="42.278992" lon="-4.24308">
        <time>2022-02-02T07:19:17Z</time>
      </trkpt>
      <trkpt lat="42.28077" lon="-4.239448">
        <time>2022-02-02T07:19:17Z</time>
      </trkpt>
      <trkpt lat="42.281663" lon="-4.236715">
        <time>2022-02-02T07:19:17Z</time>
      </trkpt>
      <trkpt lat="42.281698" lon="-4.233277">
        <time>2022-02-02T07:19:17Z</time>
      </trkpt>
      <trkpt lat="42.281202" lon="-4.226609">
        <time>2022-02-02T07:19:17Z</time>
      </trkpt>
      <trkpt lat="42.281825" lon="-4.225439">
        <time>2022-02-02T07:19:17Z</time>
      </trkpt>
      <trkpt lat="42.282611" lon="-4.223031">
        <time>2022-02-02T07:19:17Z</time>
      </trkpt>
      <trkpt lat="42.283171" lon="-4.220461">
        <time>2022-02-02T07:19:17Z</time>
      </trkpt>
      <trkpt lat="42.283742" lon="-4.215869">
        <time>2022-02-02T07:19:17Z</time>
      </trkpt>
      <trkpt lat="42.285395" lon="-4.210443">
        <time>2022-02-02T07:19:17Z</time>
      </trkpt>
      <trkpt lat="42.285747" lon="-4.206313">
        <time>2022-02-02T07:19:17Z</time>
      </trkpt>
      <trkpt lat="42.28577" lon="-4.203365">
        <time>2022-02-02T07:19:17Z</time>
      </trkpt>
      <trkpt lat="42.286022" lon="-4.201769">
        <time>2022-02-02T07:19:17Z</time>
      </trkpt>
      <trkpt lat="42.286364" lon="-4.201152">
        <time>2022-02-02T07:19:17Z</time>
      </trkpt>
      <trkpt lat="42.285995" lon="-4.197751">
        <time>2022-02-02T07:19:17Z</time>
      </trkpt>
      <trkpt lat="42.286201" lon="-4.193014">
        <time>2022-02-02T07:19:17Z</time>
      </trkpt>
      <trkpt lat="42.285911" lon="-4.188355">
        <time>2022-02-02T07:19:17Z</time>
      </trkpt>
      <trkpt lat="42.286201" lon="-4.187583">
        <time>2022-02-02T07:19:17Z</time>
      </trkpt>
      <trkpt lat="42.2866" lon="-4.185579">
        <time>2022-02-02T07:19:17Z</time>
      </trkpt>
      <trkpt lat="42.287165" lon="-4.18415">
        <time>2022-02-02T07:19:17Z</time>
      </trkpt>
      <trkpt lat="42.287415" lon="-4.181854">
        <time>2022-02-02T07:19:17Z</time>
      </trkpt>
      <trkpt lat="42.28728" lon="-4.179094">
        <time>2022-02-02T07:19:17Z</time>
      </trkpt>
      <trkpt lat="42.28753" lon="-4.178364">
        <time>2022-02-02T07:19:17Z</time>
      </trkpt>
      <trkpt lat="42.288003" lon="-4.177758">
        <time>2022-02-02T07:19:17Z</time>
      </trkpt>
      <trkpt lat="42.288173" lon="-4.176977">
        <time>2022-02-02T07:19:17Z</time>
      </trkpt>
      <trkpt lat="42.288747" lon="-4.176108">
        <time>2022-02-02T07:19:17Z</time>
      </trkpt>
      <trkpt lat="42.289108" lon="-4.173321">
        <time>2022-02-02T07:19:17Z</time>
      </trkpt>
      <trkpt lat="42.289473" lon="-4.172844">
        <time>2022-02-02T07:19:17Z</time>
      </trkpt>
      <trkpt lat="42.289717" lon="-4.171903">
        <time>2022-02-02T07:19:17Z</time>
      </trkpt>
      <trkpt lat="42.290076" lon="-4.171546">
        <time>2022-02-02T07:19:17Z</time>
      </trkpt>
      <trkpt lat="42.290281" lon="-4.17013">
        <time>2022-02-02T07:19:17Z</time>
      </trkpt>
      <trkpt lat="42.29082" lon="-4.169502">
        <time>2022-02-02T07:19:17Z</time>
      </trkpt>
      <trkpt lat="42.290731" lon="-4.168362">
        <time>2022-02-02T07:19:17Z</time>
      </trkpt>
      <trkpt lat="42.291118" lon="-4.165556">
        <time>2022-02-02T07:19:17Z</time>
      </trkpt>
      <trkpt lat="42.290584" lon="-4.16429">
        <time>2022-02-02T07:19:17Z</time>
      </trkpt>
      <trkpt lat="42.289784" lon="-4.162963">
        <time>2022-02-02T07:19:17Z</time>
      </trkpt>
      <trkpt lat="42.289929" lon="-4.159575">
        <time>2022-02-02T07:19:17Z</time>
      </trkpt>
      <trkpt lat="42.289689" lon="-4.157298">
        <time>2022-02-02T07:19:17Z</time>
      </trkpt>
      <trkpt lat="42.29005" lon="-4.15034">
        <time>2022-02-02T07:19:17Z</time>
      </trkpt>
      <trkpt lat="42.289878" lon="-4.148669">
        <time>2022-02-02T07:19:17Z</time>
      </trkpt>
      <trkpt lat="42.289925" lon="-4.147753">
        <time>2022-02-02T07:19:17Z</time>
      </trkpt>
      <trkpt lat="42.289058" lon="-4.147055">
        <time>2022-02-02T07:19:17Z</time>
      </trkpt>
      <trkpt lat="42.288471" lon="-4.146819">
        <time>2022-02-02T07:19:17Z</time>
      </trkpt>
      <trkpt lat="42.288352" lon="-4.146092">
        <time>2022-02-02T07:19:17Z</time>
      </trkpt>
      <trkpt lat="42.286899" lon="-4.142629">
        <time>2022-02-02T07:19:17Z</time>
      </trkpt>
      <trkpt lat="42.286564" lon="-4.142141">
        <time>2022-02-02T07:19:17Z</time>
      </trkpt>
      <trkpt lat="42.286772" lon="-4.141819">
        <time>2022-02-02T07:19:17Z</time>
      </trkpt>
      <trkpt lat="42.286713" lon="-4.141411">
        <time>2022-02-02T07:19:17Z</time>
      </trkpt>
      <trkpt lat="42.286701" lon="-4.141347">
        <time>2022-02-02T07:19:30Z</time>
      </trkpt>
      <trkpt lat="42.286782" lon="-4.142269">
        <time>2022-02-02T07:19:30Z</time>
      </trkpt>
      <trkpt lat="42.286993" lon="-4.142822">
        <time>2022-02-02T07:19:30Z</time>
      </trkpt>
      <trkpt lat="42.288493" lon="-4.146352">
        <time>2022-02-02T07:19:30Z</time>
      </trkpt>
      <trkpt lat="42.288687" lon="-4.146481">
        <time>2022-02-02T07:19:30Z</time>
      </trkpt>
      <trkpt lat="42.289729" lon="-4.145713">
        <time>2022-02-02T07:19:30Z</time>
      </trkpt>
      <trkpt lat="42.29061" lon="-4.145448">
        <time>2022-02-02T07:19:30Z</time>
      </trkpt>
      <trkpt lat="42.293199" lon="-4.14427">
        <time>2022-02-02T07:19:30Z</time>
      </trkpt>
      <trkpt lat="42.294001" lon="-4.143101">
        <time>2022-02-02T07:19:30Z</time>
      </trkpt>
      <trkpt lat="42.294739" lon="-4.1425">
        <time>2022-02-02T07:19:30Z</time>
      </trkpt>
      <trkpt lat="42.29627" lon="-4.141803">
        <time>2022-02-02T07:19:30Z</time>
      </trkpt>
      <trkpt lat="42.297433" lon="-4.141545">
        <time>2022-02-02T07:19:30Z</time>
      </trkpt>
      <trkpt lat="42.297786" lon="-4.142071">
        <time>2022-02-02T07:19:30Z</time>
      </trkpt>
      <trkpt lat="42.298409" lon="-4.14368">
        <time>2022-02-02T07:19:30Z</time>
      </trkpt>
      <trkpt lat="42.299004" lon="-4.144356">
        <time>2022-02-02T07:19:30Z</time>
      </trkpt>
      <trkpt lat="42.299389" lon="-4.145461">
        <time>2022-02-02T07:19:30Z</time>
      </trkpt>
      <trkpt lat="42.301091" lon="-4.148524">
        <time>2022-02-02T07:19:30Z</time>
      </trkpt>
      <trkpt lat="42.302036" lon="-4.149855">
        <time>2022-02-02T07:19:30Z</time>
      </trkpt>
      <trkpt lat="42.302994" lon="-4.150783">
        <time>2022-02-02T07:19:30Z</time>
      </trkpt>
      <trkpt lat="42.304043" lon="-4.15251">
        <time>2022-02-02T07:19:30Z</time>
      </trkpt>
      <trkpt lat="42.304267" lon="-4.153481">
        <time>2022-02-02T07:19:30Z</time>
      </trkpt>
      <trkpt lat="42.304154" lon="-4.154248">
        <time>2022-02-02T07:19:30Z</time>
      </trkpt>
      <trkpt lat="42.304362" lon="-4.154428">
        <time>2022-02-02T07:19:30Z</time>
      </trkpt>
      <trkpt lat="42.304573" lon="-4.155361">
        <time>2022-02-02T07:19:30Z</time>
      </trkpt>
      <trkpt lat="42.305779" lon="-4.154838">
        <time>2022-02-02T07:19:30Z</time>
      </trkpt>
      <trkpt lat="42.306921" lon="-4.153637">
        <time>2022-02-02T07:19:30Z</time>
      </trkpt>
      <trkpt lat="42.307904" lon="-4.152914">
        <time>2022-02-02T07:19:30Z</time>
      </trkpt>
      <trkpt lat="42.31065" lon="-4.151585">
        <time>2022-02-02T07:19:30Z</time>
      </trkpt>
      <trkpt lat="42.312882" lon="-4.149152">
        <time>2022-02-02T07:19:30Z</time>
      </trkpt>
      <trkpt lat="42.316158" lon="-4.146526">
        <time>2022-02-02T07:19:30Z</time>
      </trkpt>
      <trkpt lat="42.318318" lon="-4.145274">
        <time>2022-02-02T07:19:30Z</time>
      </trkpt>
      <trkpt lat="42.321525" lon="-4.14309">
        <time>2022-02-02T07:19:30Z</time>
      </trkpt>
      <trkpt lat="42.325186" lon="-4.142519">
        <time>2022-02-02T07:19:30Z</time>
      </trkpt>
      <trkpt lat="42.328779" lon="-4.139756">
        <time>2022-02-02T07:19:30Z</time>
      </trkpt>
      <trkpt lat="42.329463" lon="-4.138724">
        <time>2022-02-02T07:19:30Z</time>
      </trkpt>
      <trkpt lat="42.330254" lon="-4.138268">
        <time>2022-02-02T07:19:30Z</time>
      </trkpt>
      <trkpt lat="42.33079" lon="-4.139636">
        <time>2022-02-02T07:19:30Z</time>
      </trkpt>
      <trkpt lat="42.331254" lon="-4.140236">
        <time>2022-02-02T07:19:30Z</time>
      </trkpt>
      <trkpt lat="42.331591" lon="-4.140188">
        <time>2022-02-02T07:19:30Z</time>
      </trkpt>
      <trkpt lat="42.331718" lon="-4.140333">
        <time>2022-02-02T07:19:30Z</time>
      </trkpt>
      <trkpt lat="42.331401" lon="-4.141422">
        <time>2022-02-02T07:19:30Z</time>
      </trkpt>
      <trkpt lat="42.3319" lon="-4.14353">
        <time>2022-02-02T07:19:30Z</time>
      </trkpt>
      <trkpt lat="42.332844" lon="-4.146143">
        <time>2022-02-02T07:19:30Z</time>
      </trkpt>
      <trkpt lat="42.334315" lon="-4.14949">
        <time>2022-02-02T07:19:30Z</time>
      </trkpt>
      <trkpt lat="42.335033" lon="-4.152408">
        <time>2022-02-02T07:19:30Z</time>
      </trkpt>
      <trkpt lat="42.335838" lon="-4.153669">
        <time>2022-02-02T07:19:30Z</time>
      </trkpt>
      <trkpt lat="42.336413" lon="-4.154951">
        <time>2022-02-02T07:19:30Z</time>
      </trkpt>
      <trkpt lat="42.336782" lon="-4.15508">
        <time>2022-02-02T07:19:30Z</time>
      </trkpt>
      <trkpt lat="42.337024" lon="-4.155434">
        <time>2022-02-02T07:19:30Z</time>
      </trkpt>
      <trkpt lat="42.337603" lon="-4.154173">
        <time>2022-02-02T07:19:30Z</time>
      </trkpt>
      <trkpt lat="42.33809" lon="-4.153465">
        <time>2022-02-02T07:19:30Z</time>
      </trkpt>
      <trkpt lat="42.339335" lon="-4.152628">
        <time>2022-02-02T07:19:30Z</time>
      </trkpt>
      <trkpt lat="42.340049" lon="-4.151427">
        <time>2022-02-02T07:19:30Z</time>
      </trkpt>
      <trkpt lat="42.341433" lon="-4.152789">
        <time>2022-02-02T07:19:30Z</time>
      </trkpt>
      <trkpt lat="42.342983" lon="-4.153862">
        <time>2022-02-02T07:19:30Z</time>
      </trkpt>
      <trkpt lat="42.346199" lon="-4.156721">
        <time>2022-02-02T07:19:30Z</time>
      </trkpt>
      <trkpt lat="42.350453" lon="-4.162359">
        <time>2022-02-02T07:19:30Z</time>
      </trkpt>
      <trkpt lat="42.372268" lon="-4.177447">
        <time>2022-02-02T07:19:30Z</time>
      </trkpt>
      <trkpt lat="42.380283" lon="-4.182047">
        <time>2022-02-02T07:19:30Z</time>
      </trkpt>
      <trkpt lat="42.38272" lon="-4.183114">
        <time>2022-02-02T07:19:30Z</time>
      </trkpt>
      <trkpt lat="42.387661" lon="-4.181467">
        <time>2022-02-02T07:19:30Z</time>
      </trkpt>
      <trkpt lat="42.391777" lon="-4.179348">
        <time>2022-02-02T07:19:30Z</time>
      </trkpt>
      <trkpt lat="42.396519" lon="-4.177583">
        <time>2022-02-02T07:19:30Z</time>
      </trkpt>
      <trkpt lat="42.397324" lon="-4.177621">
        <time>2022-02-02T07:19:30Z</time>
      </trkpt>
      <trkpt lat="42.399782" lon="-4.178123">
        <time>2022-02-02T07:19:30Z</time>
      </trkpt>
      <trkpt lat="42.402925" lon="-4.177862">
        <time>2022-02-02T07:19:30Z</time>
      </trkpt>
      <trkpt lat="42.403161" lon="-4.179515">
        <time>2022-02-02T07:19:30Z</time>
      </trkpt>
      <trkpt lat="42.402101" lon="-4.180236">
        <time>2022-02-02T07:19:30Z</time>
      </trkpt>
      <trkpt lat="42.402024" lon="-4.180628">
        <time>2022-02-02T07:19:30Z</time>
      </trkpt>
      <trkpt lat="42.405694" lon="-4.178407">
        <time>2022-02-02T07:19:30Z</time>
      </trkpt>
      <trkpt lat="42.405973" lon="-4.178198">
        <time>2022-02-02T07:19:30Z</time>
      </trkpt>
      <trkpt lat="42.406038" lon="-4.177948">
        <time>2022-02-02T07:19:30Z</time>
      </trkpt>
      <trkpt lat="42.406724" lon="-4.177919">
        <time>2022-02-02T07:19:30Z</time>
      </trkpt>
      <trkpt lat="42.408015" lon="-4.178176">
        <time>2022-02-02T07:19:30Z</time>
      </trkpt>
      <trkpt lat="42.408585" lon="-4.178106">
        <time>2022-02-02T07:19:30Z</time>
      </trkpt>
      <trkpt lat="42.409298" lon="-4.177299">
        <time>2022-02-02T07:19:30Z</time>
      </trkpt>
      <trkpt lat="42.409659" lon="-4.176537">
        <time>2022-02-02T07:19:30Z</time>
      </trkpt>
      <trkpt lat="42.411001" lon="-4.175285">
        <time>2022-02-02T07:19:30Z</time>
      </trkpt>
      <trkpt lat="42.412857" lon="-4.174378">
        <time>2022-02-02T07:19:30Z</time>
      </trkpt>
      <trkpt lat="42.41398" lon="-4.173421">
        <time>2022-02-02T07:19:30Z</time>
      </trkpt>
      <trkpt lat="42.415386" lon="-4.172973">
        <time>2022-02-02T07:19:30Z</time>
      </trkpt>
      <trkpt lat="42.416837" lon="-4.170687">
        <time>2022-02-02T07:19:30Z</time>
      </trkpt>
      <trkpt lat="42.419255" lon="-4.168056">
        <time>2022-02-02T07:19:30Z</time>
      </trkpt>
      <trkpt lat="42.420886" lon="-4.165884">
        <time>2022-02-02T07:19:30Z</time>
      </trkpt>
      <trkpt lat="42.423666" lon="-4.163969">
        <time>2022-02-02T07:19:30Z</time>
      </trkpt>
      <trkpt lat="42.426211" lon="-4.161606">
        <time>2022-02-02T07:19:30Z</time>
      </trkpt>
      <trkpt lat="42.427418" lon="-4.160055">
        <time>2022-02-02T07:19:30Z</time>
      </trkpt>
      <trkpt lat="42.428947" lon="-4.159457">
        <time>2022-02-02T07:19:30Z</time>
      </trkpt>
      <trkpt lat="42.430026" lon="-4.158851">
        <time>2022-02-02T07:19:30Z</time>
      </trkpt>
      <trkpt lat="42.432235" lon="-4.156539">
        <time>2022-02-02T07:19:30Z</time>
      </trkpt>
      <trkpt lat="42.433565" lon="-4.155887">
        <time>2022-02-02T07:19:30Z</time>
      </trkpt>
      <trkpt lat="42.434931" lon="-4.157939">
        <time>2022-02-02T07:19:30Z</time>
      </trkpt>
      <trkpt lat="42.435684" lon="-4.159688">
        <time>2022-02-02T07:19:30Z</time>
      </trkpt>
      <trkpt lat="42.43701" lon="-4.164226">
        <time>2022-02-02T07:19:30Z</time>
      </trkpt>
      <trkpt lat="42.437181" lon="-4.169172">
        <time>2022-02-02T07:19:30Z</time>
      </trkpt>
      <trkpt lat="42.438522" lon="-4.171473">
        <time>2022-02-02T07:19:30Z</time>
      </trkpt>
      <trkpt lat="42.434971" lon="-4.178619">
        <time>2022-02-02T07:19:30Z</time>
      </trkpt>
      <trkpt lat="42.437647" lon="-4.182186">
        <time>2022-02-02T07:19:30Z</time>
      </trkpt>
      <trkpt lat="42.438023" lon="-4.18401">
        <time>2022-02-02T07:19:30Z</time>
      </trkpt>
      <trkpt lat="42.438257" lon="-4.186547">
        <time>2022-02-02T07:19:30Z</time>
      </trkpt>
      <trkpt lat="42.438683" lon="-4.186404">
        <time>2022-02-02T07:19:30Z</time>
      </trkpt>
      <trkpt lat="42.439791" lon="-4.186478">
        <time>2022-02-02T07:19:30Z</time>
      </trkpt>
      <trkpt lat="42.441836" lon="-4.189144">
        <time>2022-02-02T07:19:30Z</time>
      </trkpt>
      <trkpt lat="42.443142" lon="-4.191394">
        <time>2022-02-02T07:19:30Z</time>
      </trkpt>
      <trkpt lat="42.444668" lon="-4.193636">
        <time>2022-02-02T07:19:30Z</time>
      </trkpt>
      <trkpt lat="42.446497" lon="-4.195825">
        <time>2022-02-02T07:19:30Z</time>
      </trkpt>
      <trkpt lat="42.447722" lon="-4.195737">
        <time>2022-02-02T07:19:30Z</time>
      </trkpt>
      <trkpt lat="42.451045" lon="-4.194055">
        <time>2022-02-02T07:19:30Z</time>
      </trkpt>
      <trkpt lat="42.455149" lon="-4.192987">
        <time>2022-02-02T07:19:30Z</time>
      </trkpt>
      <trkpt lat="42.456667" lon="-4.192148">
        <time>2022-02-02T07:19:30Z</time>
      </trkpt>
      <trkpt lat="42.459012" lon="-4.191231">
        <time>2022-02-02T07:19:30Z</time>
      </trkpt>
      <trkpt lat="42.462538" lon="-4.190458">
        <time>2022-02-02T07:19:30Z</time>
      </trkpt>
      <trkpt lat="42.4648" lon="-4.189592">
        <time>2022-02-02T07:19:30Z</time>
      </trkpt>
      <trkpt lat="42.467552" lon="-4.188281">
        <time>2022-02-02T07:19:30Z</time>
      </trkpt>
      <trkpt lat="42.472148" lon="-4.186357">
        <time>2022-02-02T07:19:30Z</time>
      </trkpt>
      <trkpt lat="42.477941" lon="-4.185179">
        <time>2022-02-02T07:19:30Z</time>
      </trkpt>
      <trkpt lat="42.479893" lon="-4.184563">
        <time>2022-02-02T07:19:30Z</time>
      </trkpt>
      <trkpt lat="42.4813" lon="-4.183777">
        <time>2022-02-02T07:19:30Z</time>
      </trkpt>
      <trkpt lat="42.482477" lon="-4.182878">
        <time>2022-02-02T07:19:30Z</time>
      </trkpt>
      <trkpt lat="42.483082" lon="-4.182701">
        <time>2022-02-02T07:19:30Z</time>
      </trkpt>
      <trkpt lat="42.484028" lon="-4.181816">
        <time>2022-02-02T07:19:30Z</time>
      </trkpt>
      <trkpt lat="42.485703" lon="-4.180668">
        <time>2022-02-02T07:19:30Z</time>
      </trkpt>
      <trkpt lat="42.486874" lon="-4.179501">
        <time>2022-02-02T07:19:30Z</time>
      </trkpt>
      <trkpt lat="42.487713" lon="-4.17912">
        <time>2022-02-02T07:19:30Z</time>
      </trkpt>
      <trkpt lat="42.490923" lon="-4.178769">
        <time>2022-02-02T07:19:30Z</time>
      </trkpt>
      <trkpt lat="42.49294" lon="-4.1779">
        <time>2022-02-02T07:19:30Z</time>
      </trkpt>
      <trkpt lat="42.494249" lon="-4.177927">
        <time>2022-02-02T07:19:30Z</time>
      </trkpt>
      <trkpt lat="42.50103" lon="-4.178992">
        <time>2022-02-02T07:19:30Z</time>
      </trkpt>
      <trkpt lat="42.508606" lon="-4.187811">
        <time>2022-02-02T07:19:30Z</time>
      </trkpt>
      <trkpt lat="42.509735" lon="-4.190265">
        <time>2022-02-02T07:19:30Z</time>
      </trkpt>
      <trkpt lat="42.509861" lon="-4.190278">
        <time>2022-02-02T07:19:30Z</time>
      </trkpt>
      <trkpt lat="42.519418" lon="-4.181301">
        <time>2022-02-02T07:19:30Z</time>
      </trkpt>
      <trkpt lat="42.520968" lon="-4.174571">
        <time>2022-02-02T07:19:30Z</time>
      </trkpt>
      <trkpt lat="42.523408" lon="-4.17448">
        <time>2022-02-02T07:19:30Z</time>
      </trkpt>
      <trkpt lat="42.523893" lon="-4.17412">
        <time>2022-02-02T07:19:30Z</time>
      </trkpt>
      <trkpt lat="42.524786" lon="-4.173976">
        <time>2022-02-02T07:19:30Z</time>
      </trkpt>
      <trkpt lat="42.52561" lon="-4.174671">
        <time>2022-02-02T07:19:30Z</time>
      </trkpt>
      <trkpt lat="42.525867" lon="-4.17532">
        <time>2022-02-02T07:19:30Z</time>
      </trkpt>
      <trkpt lat="42.526705" lon="-4.175829">
        <time>2022-02-02T07:19:30Z</time>
      </trkpt>
      <trkpt lat="42.529033" lon="-4.175121">
        <time>2022-02-02T07:19:30Z</time>
      </trkpt>
      <trkpt lat="42.529876" lon="-4.175298">
        <time>2022-02-02T07:19:30Z</time>
      </trkpt>
      <trkpt lat="42.531556" lon="-4.175172">
        <time>2022-02-02T07:19:30Z</time>
      </trkpt>
      <trkpt lat="42.535317" lon="-4.177417">
        <time>2022-02-02T07:19:30Z</time>
      </trkpt>
      <trkpt lat="42.539471" lon="-4.17798">
        <time>2022-02-02T07:19:30Z</time>
      </trkpt>
      <trkpt lat="42.543325" lon="-4.173222">
        <time>2022-02-02T07:19:30Z</time>
      </trkpt>
      <trkpt lat="42.548391" lon="-4.170355">
        <time>2022-02-02T07:19:30Z</time>
      </trkpt>
      <trkpt lat="42.55083" lon="-4.17264">
        <time>2022-02-02T07:19:30Z</time>
      </trkpt>
      <trkpt lat="42.555094" lon="-4.17392">
        <time>2022-02-02T07:19:30Z</time>
      </trkpt>
      <trkpt lat="42.559251" lon="-4.174333">
        <time>2022-02-02T07:19:30Z</time>
      </trkpt>
      <trkpt lat="42.561193" lon="-4.174338">
        <time>2022-02-02T07:19:30Z</time>
      </trkpt>
      <trkpt lat="42.561957" lon="-4.173917">
        <time>2022-02-02T07:19:30Z</time>
      </trkpt>
      <trkpt lat="42.564541" lon="-4.173737">
        <time>2022-02-02T07:19:30Z</time>
      </trkpt>
      <trkpt lat="42.567666" lon="-4.175266">
        <time>2022-02-02T07:19:30Z</time>
      </trkpt>
      <trkpt lat="42.569742" lon="-4.175945">
        <time>2022-02-02T07:19:30Z</time>
      </trkpt>
      <trkpt lat="42.574445" lon="-4.174453">
        <time>2022-02-02T07:19:30Z</time>
      </trkpt>
      <trkpt lat="42.575565" lon="-4.174628">
        <time>2022-02-02T07:19:30Z</time>
      </trkpt>
      <trkpt lat="42.579081" lon="-4.174783">
        <time>2022-02-02T07:19:30Z</time>
      </trkpt>
      <trkpt lat="42.579192" lon="-4.174976">
        <time>2022-02-02T07:19:30Z</time>
      </trkpt>
    </trkseg>
  </trk>
</gpx>
